İHALESİ DEVAM EDEN HASARLI ARAÇLARIN LİSTESİ

Aşağıda sınırlı sayıda hasarlı araçlar listelenmektedir.
İhaledeki tüm araçları görüp almak istediğiniz araca teklif vermeniz için aşağıda yazılı hesaplarımızdan birine 20.000 TL teminat yatırmanız gerekmektedir.
Teminat yatırdıktan sonra araçlar teklif vermeye başlayabilirsiniz. Araç kaldıktan sonra aracın rakamına göre kapora almaktayız. Ödeme geldiğinde kaporanızı ödeyeceğiniz miktardan düşüyoruz. İsterseniz yatırdığınız teminatınızı da aldığınız araçtan düşebilirsiniz ya da teminatınız durur araç almaya devam edersiniz.
Ödeme yapılacak veya bekleyen araçlar menüsünde aracınız yoksa teminatınızı geri çekebilirsiniz.
Aldığınız aracı ödemezseniz teminatınız yanar.

 #

Model

Aracın Markası Aracın Tipi Bulunduğu Şehir Kapanış Tarihi Asgari Fiyat
1 2006 Fiat/Tofaş ALBEA 1.2 16V DYNAMIC SPEEDGEAR Samsun 9.5.2026 16:30 1.000 TL
2 2024 Motorsiklet KUBA TERRA 125 Trabzon 9.5.2026 16:30 1.000 TL
3 2005 Fiat/Tofaş ALBEA SOLE DYNAMIC PLUS 1.3 MULTIJET 70 İzmir 9.5.2026 16:30 1.000 TL
4 1998 Toyota HIACE PANEL VAN İstanbul 9.5.2026 16:30 1.000 TL
5 2007 Peugeot 307 SW COMFORT 1.6 HDI (110) Ankara 9.5.2026 16:30 1.500 TL
6 2023 Motorsiklet MONDIAL RESSIVO 125 Bursa 9.5.2026 16:30 500 TL
7 2024 Motorsiklet HONDA NT 1100 DCT İstanbul 9.5.2026 16:30 100.000 TL
8 2016 Motorsiklet YAMAHA R25 ABS İstanbul 9.5.2026 16:30 1.000 TL
9 2025 Motorsiklet CFMOTO 250 NK İstanbul 9.5.2026 16:30 1.000 TL
10 2023 Motorsiklet YAMAHA NMAX 155 ABS İstanbul 9.5.2026 16:30 1.000 TL
11 2025 Motorsiklet KTM 250 DUKE ABS İstanbul 9.5.2026 16:30 1.000 TL
12 2002 Volvo FH 12 420 4x2 Kütahya 9.5.2026 16:30 1.000 TL
13 1994 Renault 9 GTE BROADWAY Kocaeli 9.5.2026 16:30 1.000 TL
14 2014 Renault FLUENCE ICON 1.5 DCI 110 EDC Mardin 9.5.2026 16:30 2.000 TL
15 1999 Toyota COROLLA 1-3 Aydın 9.5.2026 16:30 5.000 TL
16 2008 Fiat/Tofaş DOBLO COMBI 1.3 M.JET Bursa 10.5.2026 15:30 1.000 TL
17 2024 Honda HR-V 1.5 EHEV Adana 11.5.2026 15:15 333.000 TL
18 2024 Renault MEGANE SEDAN 1.3 TCE Adana 11.5.2026 15:15 1.000 TL
19 2024 Cupra ATECA 1.5 TSI İzmir 11.5.2026 15:15 1.000 TL
20 2008 Mercedes SPRINTER 315 CDI SASI KAMYONET Uşak 11.5.2026 15:15 1.000 TL
21 2017 Toyota COROLLA 1.6 SEDAN Uşak 11.5.2026 15:15 1.000 TL
22 2020 Mini COOPER 3 KAPI 1.5 İstanbul 11.5.2026 15:15 795.000 TL
23 2024 Man TGE 3.180 PANELVAN İzmir 11.5.2026 15:15 939.000 TL
24 2025 Renault CLIO 1.0 TCE Tekirdağ 11.5.2026 15:15 616.000 TL
25 2013 Fiat/Tofaş DOBLO COMBI 1.3 M.JET Antalya 11.5.2026 15:15 93.600 TL
26 2012 Ford FIESTA 1.4 TDCİ TREND Uşak 11.5.2026 15:15 1.000 TL
27 2018 Volvo S60 1.5 T3 ADVANCE İstanbul 11.5.2026 15:15 1.000 TL
28 2014 Mercedes SPRINTER PANELVAN İstanbul 11.5.2026 15:15 1.000 TL
29 2012 Renault MEGANE SPORT TOURER 1.5 DCI İstanbul 11.5.2026 15:15 1.000 TL
30 2010 Honda CIVIC SEDAN 1.6i VTEC Isparta 11.5.2026 15:15 1.000 TL
31 2024 Toyota C-HR 1.8 HYBRID Sivas 11.5.2026 15:15 1.000 TL
32 2012 Volvo XC60 2.0 D3 Batman 11.5.2026 15:15 1.000 TL
33 2023 Volkswagen POLO 1.0 IMPRESSION Konya 11.5.2026 15:15 1.000 TL
34 2023 Renault MEGANE SEDAN 1.3 TCE Eskişehir 11.5.2026 15:15 1.000 TL
35 2011 Fiat/Tofaş DUCATO VAN L1H1 2.2 MULTIJET (8M3) İstanbul 11.5.2026 15:15 1.000 TL
36 2023 Renault MASTER PANELVAN Bursa 11.5.2026 15:15 1.000 TL
37 2020 Volkswagen T-ROC 1.5 TSI HIGHLINE Düzce 11.5.2026 15:15 567.000 TL
38 2021 Renault MEGANE SEDAN 1.5 BLUEDCI İzmir 11.5.2026 15:15 1.000 TL
39 2024 Toyota COROLLA CROSS 1.8 HYBRID Kocaeli 11.5.2026 15:15 3.800 TL
40 2023 Renault CLIO 1.0 TCE İstanbul 11.5.2026 15:15 1.000 TL
41 2017 Ford KUGA 1.5 TDCI Batman 11.5.2026 15:15 250.000 TL
42 2024 Bmw İX2 EDRIVE20 Bursa 11.5.2026 15:15 100.200 TL
43 2013 Ford GRAND C-MAX TITANIUM 1.6 TDCİ Antalya 11.5.2026 15:15 1.000 TL
44 2020 Hyundai KONA 1.6 CRDI İstanbul 11.5.2026 15:15 100.200 TL
45 2024 Toyota COROLLA 1.5 SEDAN İstanbul 11.5.2026 15:15 2.000 TL
46 2019 Fiat/Tofaş EGEA EASY 1.4 FIRE İstanbul 11.5.2026 15:15 1.000 TL
47 2023 Opel CORSA 1.2 Adana 11.5.2026 15:15 1.000 TL
48 2023 Mg ZS 1.0 T-GDI İstanbul 11.5.2026 15:15 115.000 TL
49 2025 Renault CAPTUR 1.3 HYBRID Tekirdağ 11.5.2026 15:15 1.000 TL
50 2024 Audi A6 SEDAN 40 TDI QUATTRO ADVANCED Kayseri 11.5.2026 15:15 3.297.000 TL
51 2025 Ford TRANSIT CUSTOM VAN Manisa 11.5.2026 15:15 1.000 TL
52 2016 Mercedes C 200 D Adana 11.5.2026 15:15 100.000 TL
53 2011 Chevrolet CAPTIVA 2.0 16V DIESEL HIGH OV 7K Konya 11.5.2026 15:30 1.000 TL
54 2004 Lada 2110 VEGA HB 1.5i Mersin 11.5.2026 15:30 1.000 TL
55 1998 Renault MEGANE 2.0 RXT Şehir Seç 11.5.2026 15:30 1.000 TL
56 2018 Peugeot 301 ALLURE 1.6 BLUEHDI 100 Kocaeli 11.5.2026 15:30 1.000 TL
57 2014 Nissan JUKE MC 1,6 BLACKEDITION CVT Afyonkarahisar 11.5.2026 15:30 1.000 TL
58 2015 Volkswagen CC 1.4 TSI Ankara 11.5.2026 15:30 1.000 TL
59 2020 Ford CEKICI F-MAX Gaziantep 11.5.2026 15:30 1.000 TL
60 2012 Volkswagen POLO 1.2 TDI TRENDLINE Bursa 11.5.2026 15:30 1.000 TL
61 2014 Skoda YETI 1.6 TDI CR 105 Antalya 11.5.2026 15:30 1.000 TL
62 2014 Skoda YETI 1.6 TDI Artvin 11.5.2026 15:30 1.000 TL
63 2024 Fiat/Tofaş EGEA CROSS URBAN 1.4 FIRE 95 GSR TRACTION+ Kocaeli 11.5.2026 15:30 1.000 TL
64 2019 Motorsiklet X-MAX 125 İRON İstanbul 11.5.2026 15:30 1.000 TL
65 2024 Citroen C5 AIRCROSS 1.5 BLUEHDI Mersin 11.5.2026 15:30 1.000 TL
66 2024 Motorsiklet VESTA 50 Şehir Seç 11.5.2026 15:30 1.000 TL
67 2007 Ford FUSION 1.6 TDCI LUX İstanbul 11.5.2026 15:30 1.000 TL
68 2013 Hyundai ix35 1.6 GDI ELITE OV Ankara 11.5.2026 15:30 1.000 TL
69 1990 Opel VECTRA 2.0 Manisa 11.5.2026 15:30 1.000 TL
70 2025 Motorsiklet SCOOTER FURY 110i Kocaeli 11.5.2026 15:30 1.000 TL
71 2012 Dorse/Römork KOLUMAN Şehir Seç 11.5.2026 15:30 1.000 TL
72 2023 Motorsiklet SPONTINI 125 İzmir 11.5.2026 15:30 1.000 TL
73 2024 Fiat/Tofaş DOBLO CARGO MAXI 1.5 100 BLUEHDI FL İstanbul 11.5.2026 15:30 1.000 TL
74 2022 Ford TRANSIT COURIER VAN KISA 1.5 TDCI SCR TREND Eskişehir 11.5.2026 15:30 1.000 TL
75 2023 Honda DIO Ankara 11.5.2026 15:30 1.000 TL
76 2006 Isuzu D-MAX CIFT KABIN K.NET 4x4 (2.5) Trabzon 11.5.2026 15:30 1.000 TL
77 2023 Dacia SPRING EXTREME ELECTRIC 65 Afyonkarahisar 11.5.2026 15:30 1.000 TL
78 1991 Opel VECTRA 1.8 GL Afyonkarahisar 11.5.2026 15:30 1.000 TL
79 2023 Renault TRAFIC PANELVAN 2 1 GRAND CONFORT 6M3 150 İstanbul 11.5.2026 15:30 1.000 TL
80 2018 Renault CLİO 1.5 DCİ JOY Antalya 11.5.2026 15:30 1.000 TL
81 2014 Volkswagen THE BEETLE 1.2 TSI 105 DESIGN DSG İstanbul 11.5.2026 15:30 1.000 TL
82 2012 Hyundai ACCENT ERA 1.5 CRDI MODE OV İstanbul 11.5.2026 15:30 1.000 TL
83 2019 Fiat/Tofaş EGEA SEDAN EASY 1.3 M.JET 95 E6D Çanakkale 11.5.2026 15:30 1.000 TL
84 2025 Toyota COROLLA HYBRID 1.8 DREAM E-CVT FL 2025 Şehir Seç 11.5.2026 15:30 1.000 TL
85 2004 Peugeot PARTNER 190 C 2.0 HDI İstanbul 11.5.2026 15:30 1.000 TL
86 2019 Fiat/Tofaş EGEA EASY 1.4 FIRE İstanbul 11.5.2026 15:30 1.000 TL
87 1997 Toyota COROLLA 1.3 XL (Y) Gaziantep 11.5.2026 15:30 1.000 TL
88 1997 Fiat/Tofaş TIPO 1.4S Zonguldak 11.5.2026 15:30 1.000 TL
89 2023 Tesla MODEL Y LONG RANGE İstanbul 11.5.2026 15:30 1.000 TL
90 2007 Fiat/Tofaş GRANDE PUNTO 3K 1.3 M.JET (75) ACTIVE İzmir 11.5.2026 15:30 1.000 TL
91 2023 Motorsiklet 250 NK Sakarya 11.5.2026 15:30 1.000 TL
92 2012 Fiat/Tofaş LINEA 1.3 MULTIJET EMOTION PLUS (90) İstanbul 11.5.2026 15:30 1.000 TL
93 2013 Ford FIESTA TITANIUM 5K 1.6i 105 POWERSHIFT Kayseri 11.5.2026 15:30 1.000 TL
94 2006 Toyota YARIS 1.3 BLUE (ESKI KASA) Hatay 11.5.2026 15:30 1.000 TL
95 2013 Ford TRANSIT CUSTOM VAN 330 L TREND İstanbul 11.5.2026 15:30 1.000 TL
96 2014 Otokar KAMYON ATLAS UZUN Kocaeli 11.5.2026 15:30 1.000 TL
97 2024 Kia BONGO KAMYONET 2.5 DIZEL 130 KONFOR Trabzon 11.5.2026 15:30 1.000 TL
98 2014 Volkswagen POLO 1.4 85 CHROME EDITION Erzurum 11.5.2026 15:30 1.000 TL
99 2019 Ford TOURNEO COURIER KOMBI 1.5 TDCI 95 DELUXE İstanbul 11.5.2026 15:30 1.000 TL
100 2014 Ford FOCUS III MCA TREND X 1.6 TDCI 95 4K Adana 11.5.2026 15:30 1.000 TL
101 2008 Volkswagen CADDY KOMBI 1.9 TDI Ankara 11.5.2026 15:30 1.000 TL
102 2024 Fiat/Tofaş DOBLO CARGO 1.5 100 BLUEHDI FL İstanbul 11.5.2026 15:30 1.000 TL
103 2005 Volkswagen LT VOLT 35 2.5 TDI MIDIBUS 16+1 Kayseri 11.5.2026 15:30 1.000 TL
104 2011 Toyota AURIS 1.6 COMFORT EXTRA Mersin 11.5.2026 15:30 1.000 TL
105 2022 Toyota HILUX 2.4 D-4D 150 4x2 ADVENTURE A/T Adana 11.5.2026 15:30 1.000 TL
106 2017 Volkswagen CADDY 2.0 TDI SCR BMT 102 TRENDLINE Kocaeli 11.5.2026 15:30 1.000 TL
107 2024 Citroen C4 X SHINE BOLD 1.2 PURETECH 130 EAT8 Samsun 11.5.2026 15:30 1.000 TL
108 2022 Honda CITY 4D 1.5 EXECUTIVE AT İzmir 11.5.2026 15:30 1.000 TL
109 2025 Dorse/Römork MAXIMA TENTELİ Gaziantep 11.5.2026 15:30 1.000 TL
110 2025 Togg T10X V2 RWD UZUN MENZIL 160KW Konya 11.5.2026 15:30 1.000 TL
111 2016 Opel INSIGNIA NB 1.6D AT6 SPORT İstanbul 11.5.2026 15:30 1.000 TL
112 2024 Motorsiklet SPONTINI 125 Şehir Seç 11.5.2026 15:30 1.000 TL
113 2023 Ford FOCUS TITANIUM X 4K 1.5 ECOBLUE 115 8AT Afyonkarahisar 11.5.2026 15:30 1.000 TL
114 2020 Fiat/Tofaş DOBLO CARGO 1.3 M.JET 95 E6D İstanbul 11.5.2026 15:30 1.000 TL
115 2012 Honda CR-V 2.0 EXECUTIVE OV Samsun 11.5.2026 15:30 1.000 TL
116 2021 Mitsubishi L200 CIFT KABIN KAMYONET 2.2 4x4 PREMIUM AT Ordu 11.5.2026 15:30 1.000 TL
117 2013 Volvo S60 1.6 DRIVE ADVANCE POWERSHİFT Denizli 11.5.2026 15:30 1.000 TL
118 2014 Renault CEKICI PREMIUM 460.19 T 4x2 Antalya 11.5.2026 15:30 1.000 TL
119 2011 Fiat/Tofaş PANDA 1.2 ACTIVE (69) Uşak 11.5.2026 15:30 1.000 TL
120 2000 Honda CIVIC 1.6 iES 4 KAPI (Y) Kahramanmaraş 11.5.2026 15:30 1.000 TL
121 2022 Toyota HILUX 2.4 D-4D 150 HI-CRUISER A T Tekirdağ 11.5.2026 15:30 1.000 TL
122 2012 Peugeot 301 ACCESS 1.6 HDI 92 Kırşehir 11.5.2026 15:30 1.000 TL
123 2025 Citroen C4 X YOU 1.2 PURETECH 130 EAT8 Denizli 11.5.2026 15:30 1.000 TL
124 2012 Hyundai i30 1.6 CRDI ELITE OV Kocaeli 11.5.2026 15:30 1.000 TL
125 2017 Fiat/Tofaş FULLBACK HARDROCK 4x4 M/T 2.4 180 KAMYONET Erzurum 11.5.2026 15:30 1.000 TL
126 2023 Renault MEGANE SEDAN TOUCH 1.3 TCE EDC 140 FAZ2 Adana 11.5.2026 15:30 1.000 TL
127 2024 Fiat/Tofaş EGEA SEDAN EASY 1.6 M.JET 130 DCT Ankara 11.5.2026 15:30 1.000 TL
128 2020 Fiat/Tofaş EGEA S.WAGON URBAN PLUS 1.6 M.JET 120 DCT E6D İstanbul 11.5.2026 15:30 1.000 TL
129 2024 Audi Q2 35 TFSI 150 ADVANCED STRONIC PI Samsun 11.5.2026 15:30 1.000 TL
130 2019 Opel ASTRA NB 1.4 140 İzmir 11.5.2026 15:30 1.000 TL
131 2020 Dacia SANDERO 0,9 Hatay 11.5.2026 15:30 1.000 TL
132 2021 Honda DIO Balıkesir 11.5.2026 15:30 1.000 TL
133 2024 Suzuki GSXR125 Hatay 11.5.2026 15:30 1.000 TL
134 1998 Mitsubishi L300 PANEL VAN İzmir 11.5.2026 15:30 1.000 TL
135 2022 Renault MEGANE SEDAN 1.3 TCE Ankara 11.5.2026 15:30 1.000 TL
136 2022 Motorsiklet NEWLIGHT 125 İstanbul 11.5.2026 15:30 1.000 TL
137 1992 Fiat/Tofaş TEMPRA SX Elazığ 11.5.2026 15:30 1.000 TL
138 2024 Motorsiklet CITA 50 R GOLD Sivas 11.5.2026 15:30 1.000 TL
139 2004 Traktör TD95D Şehir Seç 11.5.2026 15:30 1.000 TL
140 2016 Volkswagen POLO 1.4 TDI Zonguldak 11.5.2026 15:30 1.000 TL
141 2025 Ford TRANSIT CUSTOM VAN Balıkesir 11.5.2026 15:30 1.000 TL
142 1993 Toyota COROLLA 1.6 XL Mersin 11.5.2026 15:30 1.000 TL
143 2024 Ford T. COURIER 1.5 TDCİ 100 Adana 11.5.2026 15:30 1.000 TL
144 1997 Fiat/Tofaş UNO S Konya 11.5.2026 15:30 1.000 TL
145 2014 Volkswagen PASSAT 1.6 TDI Ankara 11.5.2026 15:30 1.000 TL
146 1992 Fiat/Tofaş TEMPRA SX Sakarya 11.5.2026 15:30 1.000 TL
147 2017 Renault CLIO HB 1.5 DCI Kocaeli 11.5.2026 15:30 1.000 TL
148 2024 Honda PCX 125 İzmir 11.5.2026 15:30 1.000 TL
149 2025 Motorsiklet VRS 125 Bursa 11.5.2026 15:30 1.000 TL
150 2019 Skoda SUPERB 1.6 TDI Diyarbakır 11.5.2026 15:30 1.000 TL
151 2015 Renault CLIO HB 1.5 DCI İzmir 11.5.2026 15:30 1.000 TL
152 2017 Motorsiklet PULSAR 200 NS İstanbul 11.5.2026 15:30 1.000 TL
153 2025 Dacia SANDERO Hatay 11.5.2026 15:30 1.000 TL
154 2024 Honda PCX 125 İstanbul 11.5.2026 15:30 1.000 TL
155 2024 Motorsiklet SRK125 R Ankara 11.5.2026 15:30 1.000 TL
156 1995 Fiat/Tofaş DOGAN SLX Burdur 11.5.2026 15:30 1.000 TL
157 1996 Renault BROADWAY 1.4 Bilecik 11.5.2026 15:30 1.000 TL
158 2003 Renault CLIO SYMBOL 1.5 DCI Bursa 11.5.2026 15:30 1.000 TL
159 1999 Peugeot PARTNER 1.9D Ankara 11.5.2026 15:30 1.000 TL
160 2022 Honda DIO 110 İstanbul 11.5.2026 15:30 1.000 TL
161 2007 Scania CEKICI R 420 CA 4x2 HNA Şehir Seç 11.5.2026 15:30 1.000 TL
162 2018 Volkswagen GOLF 1,6 TDİ Antalya 11.5.2026 15:30 1.000 TL
163 2021 Kia STONIC 1.4 İstanbul 11.5.2026 15:30 1.000 TL
164 2016 Ford TOURNEO COUIRER KOMBI 1,6 TDCİ Kayseri 11.5.2026 15:30 1.000 TL
165 2023 Chery TIGGO 7 PRO Trabzon 11.5.2026 15:30 1.000 TL
166 2024 Chery TIGGO 7 PRO Bursa 11.5.2026 15:30 1.000 TL
167 2013 Seat ALHAMRA 1.4 TSI İstanbul 11.5.2026 15:30 1.000 TL
168 2010 Bmc BELDE OTOBÜS Kayseri 11.5.2026 15:30 1.000 TL
169 2026 Hyundai i20 1.0 T 90 JUMP DCT Konya 11.5.2026 15:30 1.000 TL
170 2012 Mercedes KAMYON ATEGO 2124 Erzurum 11.5.2026 15:30 1.000 TL
171 2012 Mercedes KAMYON ATEGO 2124 Erzurum 11.5.2026 15:30 1.000 TL
172 2025 Ford TOURNEO COURIER 1.0 ECOBOOST Adana 11.5.2026 15:30 1.000 TL
173 2025 Opel MOKKA 1.2 T İstanbul 11.5.2026 15:30 1.000 TL
174 2022 Kia STONIC 1.4 100 AT Bursa 11.5.2026 15:30 1.000 TL
175 2021 Audi A4 40 TDI Batman 11.5.2026 15:30 1.000 TL
176 1986 İş Makinası KOMATSU GREYDER Erzurum 11.5.2026 15:30 1.000 TL
177 2020 Citroen C-ELYSEE 1.5 BLUEHDI Kayseri 11.5.2026 15:30 1.000 TL
178 2019 Peugeot 508 1.6 PURETECH Bursa 11.5.2026 15:30 1.000 TL
179 2011 Renault SYMBOL 1.5 DCI 65 Trabzon 11.5.2026 15:30 1.000 TL
180 2002 Nissan PRIMERA 1.6 COMFORT SEDAN Denizli 11.5.2026 15:30 1.000 TL
181 2024 Ssangyong MUSSO GRAND D2.2 4x4 Erzurum 11.5.2026 15:30 TL
182 2019 Audi Q8 3.0 50 TDI QUATTRO Mardin 11.5.2026 15:30 1.000 TL
183 2020 Fiat/Tofaş EGEA HB 1.3 M.JET Gümüşhane 11.5.2026 15:30 1.000 TL
184 2008 Volkswagen JETTA 1.6 TSI İstanbul 11.5.2026 15:30 1.000 TL
185 2025 Togg T10F V2 RWD UZUN MENZIL 160KW İstanbul 11.5.2026 15:30 1.000 TL
186 2023 Mercedes EQB 250+ Ankara 11.5.2026 15:30 1.000 TL
187 2024 Motorsiklet DASH 125 İzmir 11.5.2026 15:30 1.000 TL
188 2023 Dacia SANDERO Şehir Seç 11.5.2026 15:30 1.000 TL
189 2001 Fiat/Tofaş PALIO WEEKEND 1.4 EL Bursa 11.5.2026 15:30 1.000 TL
190 2008 Kia SPORTAGE 2.0 DSL İstanbul 11.5.2026 15:30 1.000 TL
191 2019 Ford TRANSIT VAN 2.0 ECOBLUE TDCI Kayseri 11.5.2026 15:30 1.000 TL
192 2023 Fiat/Tofaş FIORINO COMBI POP 1.3 M.JET Bursa 11.5.2026 15:30 1.000 TL
193 2019 Toyota COROLLA 1.6 Ankara 11.5.2026 15:30 1.000 TL
194 2025 Skoda SUPERB 1.5 TSI MHEV Kocaeli 11.5.2026 15:30 1.000 TL
195 2024 Motorsiklet 125 DRFİT L Mersin 11.5.2026 15:30 1.000 TL
196 2008 Ford TRANSIT CONNECT T220 S Antalya 11.5.2026 15:30 1.000 TL
197 1998 Hyundai H100 2.5 Mersin 11.5.2026 15:30 1.000 TL
198 2024 Ford TRANSIT COURIER 1.5 Muğla 11.5.2026 15:30 1.000 TL
199 2018 Fiat/Tofaş 500L 1.3 M.JET Antalya 11.5.2026 15:30 1.000 TL
200 1997 Fiat/Tofaş SAHİN S Tekirdağ 11.5.2026 15:30 1.000 TL
201 2008 Toyota AURIS 1.4 D-4D BLUE Sakarya 11.5.2026 15:30 1.000 TL
202 2023 Mercedes KAMYON AROCS 4148 İstanbul 11.5.2026 15:30 1.000 TL
203 2023 Ford 4142M Malatya 11.5.2026 15:30 1.000 TL
204 2023 Audi A3 SPORTBACK 35 TFSI İstanbul 11.5.2026 15:30 1.000 TL
205 2015 Ford KAMYON CARGO 6x2 Antalya 11.5.2026 15:30 1.000 TL
206 2024 Ford CEKICI F-MAX Eskişehir 11.5.2026 15:30 1.000 TL
207 2025 Honda SH125AD İstanbul 11.5.2026 15:30 1.000 TL
208 2000 Hyundai ACCENT 1.3 LX Sivas 11.5.2026 15:30 1.000 TL
209 2023 Hyundai İ20 1.4 MPI Adıyaman 11.5.2026 15:30 1.000 TL
210 1991 Fiat/Tofaş TEMPRA 1.6 SXA İzmir 11.5.2026 15:30 1.000 TL
211 2014 Volkswagen JETTA 1.4 TSI Ankara 11.5.2026 15:30 1.000 TL
212 2013 Opel CORSA 1,3 CDTİ Afyonkarahisar 11.5.2026 15:30 1.000 TL
213 1994 Fiat/Tofaş SAHIN 1.6 Konya 11.5.2026 15:30 1.000 TL
214 2012 Motorsiklet BEVERLY 350 SPORT TOURING İstanbul 11.5.2026 15:30 1.000 TL
215 2007 Ford FOCUS 1.6 Aksaray 11.5.2026 15:30 1.000 TL
216 2019 Peugeot 3008 1.5 BLUEHDI İstanbul 11.5.2026 15:30 1.000 TL
217 2024 Renault DUSTER 1.2 Ankara 11.5.2026 15:30 1.000 TL
218 2020 Honda PCX 125 İzmir 11.5.2026 15:30 1.000 TL
219 1995 Opel VECTRA 2.0 GLS Denizli 11.5.2026 15:30 1.000 TL
220 2003 Opel VECTRA 1.6i COMFORT Kocaeli 11.5.2026 15:30 1.000 TL
221 2014 Fiat/Tofaş LINEA 1.6 MULTIJET Konya 11.5.2026 15:30 1.000 TL
222 2013 Toyota AURIS 1.4 D-4D ACTIVE Kocaeli 11.5.2026 15:30 1.000 TL
223 2012 Citroen DS4 1.6 e-HDI Ankara 11.5.2026 15:30 1.000 TL
224 2007 Volkswagen CADDY KOMBI 1.9 TDI Mersin 11.5.2026 15:30 1.000 TL
225 2025 Ford FOCUS 1.5 ECOBLUE İstanbul 11.5.2026 15:30 1.000 TL
226 2013 Mercedes AXOR 1840 LS Diyarbakır 11.5.2026 15:30 1.000 TL
227 2011 Honda JAZZ 1.4 EX FUN i SHIFT İstanbul 11.5.2026 15:30 1.000 TL
228 2022 Fiat/Tofaş EGEA 1.4 FIRE Adana 11.5.2026 15:30 1.000 TL
229 2023 Ford KAMYON 2533 6x2 TEK YATAK YUKSEK TAVAN Ankara 11.5.2026 15:30 1.000 TL
230 2011 Mini COOPER S 1.6 COUNTRYMAN ALL4 Ankara 11.5.2026 15:30 1.000 TL
231 2022 Opel CROSSLAND 1.5 DIZEL 120 Isparta 11.5.2026 15:30 1.000 TL
232 2018 Renault MEGANE SEDAN İstanbul 11.5.2026 15:30 1.000 TL
233 2024 Skoda SUPERB 1.5 TSI HYBRİD İstanbul 11.5.2026 15:30 1.000 TL
234 2004 Peugeot 307 1.6 İstanbul 11.5.2026 15:30 1.000 TL
235 2024 Fiat/Tofaş EGEA SEDAN 1.6 MJET 130 EASY Konya 11.5.2026 15:30 1.000 TL
236 2025 Fiat/Tofaş EGEA SEDAN 1.4 FIRE EASY İstanbul 11.5.2026 15:30 1.000 TL
237 2025 Opel CORSA 1.2 Ankara 11.5.2026 15:30 1.000 TL
238 2025 Peugeot 3008 1.2 Kocaeli 11.5.2026 15:30 1.000 TL
239 2022 Toyota COROLLA 1,8 HYBRID İstanbul 11.5.2026 15:30 1.000 TL
240 2016 Nissan QASHQAI 1.6 DCI PLATINUM PREMIUM İzmir 11.5.2026 15:30 1.000 TL
241 2005 Nissan MICRA 1.2 TEKNA Kocaeli 11.5.2026 15:30 1.000 TL
242 2006 Fiat/Tofaş PALIO 1.2 DYNAMIC Artvin 11.5.2026 15:30 1.000 TL
243 2011 Volkswagen JETTA 1.2 TSI TRENDLINE Konya 11.5.2026 15:30 1.000 TL
244 2009 Honda CITY Denizli 11.5.2026 15:30 1.000 TL
245 2022 Dorse/Römork DAMPERLİ YARI RÖMORK Hatay 11.5.2026 15:30 1.000 TL
246 2024 Opel COMBO CARGO 1.5 DIZEL Antalya 11.5.2026 15:30 1.000 TL
247 2017 Renault KANGOO EXPRESS COMBI 1.5 DCI İstanbul 11.5.2026 15:30 1.000 TL
248 2012 Chevrolet CAPTIVA 2.0 D Manisa 11.5.2026 15:30 1.000 TL
249 2023 Ford TOURNEO COURIER KOMBI 1.5 TDCI İstanbul 11.5.2026 15:30 1.000 TL
250 2007 Opel CORSA 1.3 CDTİ Antalya 11.5.2026 15:30 1.000 TL
251 2020 Ford TRANSIT PANELVAN İstanbul 11.5.2026 15:30 1.000 TL
252 2004 Toyota COROLLA 1.6 TERRA İzmir 11.5.2026 15:30 1.000 TL
253 2017 Opel ASTRA 1.6 DIZEL İzmir 11.5.2026 15:30 1.000 TL
254 1991 Fiat/Tofaş ŞAHİN 1.6 Denizli 11.5.2026 15:30 1.000 TL
255 2008 Volvo S60 2.0 Erzurum 11.5.2026 15:30 1.000 TL
256 2019 Dacia DOKKER COMBI 1.5 BLUEDCI Adana 11.5.2026 15:30 1.000 TL
257 1998 Fiat/Tofaş MAREA 1.6 ELX Sivas 11.5.2026 15:30 1.000 TL
258 2016 Renault FLUENCE 1.5 DCI Aydın 11.5.2026 15:30 1.000 TL
259 2024 Hyundai TUCSON 1.6 CRDI Ordu 11.5.2026 15:30 1.000 TL
260 2021 Skoda OCTAVIA 1.5 TSI eTEC İstanbul 11.5.2026 15:30 1.000 TL
261 2012 Renault MEGANE HB 1.6 110 Hatay 11.5.2026 15:30 1.000 TL
262 2019 Motorsiklet MT-07 İstanbul 11.5.2026 15:30 1.000 TL
263 2026 Motorsiklet R125 Ankara 11.5.2026 15:30 1.000 TL
264 2011 Toyota AVENSIS 1.8 ELEGANT EXTRA MULTIDRIVE S Balıkesir 11.5.2026 15:30 1.000 TL
265 2013 Daf FT XF Mersin 11.5.2026 15:30 1.000 TL
266 1998 Kia SEPHİA 1.6 Mersin 11.5.2026 15:30 1.000 TL
267 2011 Renault SYMBOL 1.5 DCİ EXPRESSİON İstanbul 11.5.2026 15:30 1.000 TL
268 2006 Renault MEGANE 1,5 DCI Karaman 11.5.2026 15:30 1.000 TL
269 2024 Peugeot 2008 1.2 PURETECH Konya 11.5.2026 15:30 1.000 TL
270 2012 Citroen C4 1.6 e HDI CONFORT MCP Batman 11.5.2026 15:30 1.000 TL
271 2001 Renault CLIO 1,4 Ankara 11.5.2026 15:30 1.000 TL
272 2019 Volkswagen TIGUAN 1.5 TSI COMFORTLİNE İstanbul 11.5.2026 15:30 1.000 TL
273 2013 Fiat/Tofaş LINEA URBAN 1.3 MULTIJET Ankara 11.5.2026 15:30 1.000 TL
274 2018 Audi A3 CABRIO 1,5 Tokat 11.5.2026 15:30 1.000 TL
275 2021 Hyundai i20 1.4 MPI Mersin 11.5.2026 15:30 1.000 TL
276 2025 Motorsiklet 250 NK İzmir 11.5.2026 15:30 1.000 TL
277 1996 Nissan MAXIMA 2.0 SE İstanbul 11.5.2026 15:30 1.000 TL
278 2001 Renault CLIO 1.4 İstanbul 11.5.2026 15:30 1.000 TL
279 2012 Fiat/Tofaş PUNTO 1.4 Şehir Seç 11.5.2026 15:30 1.000 TL
280 1988 Renault R9 BROADWAY Zonguldak 11.5.2026 15:30 1.000 TL
281 1998 Hyundai ACCENT 1.3 Düzce 11.5.2026 15:30 1.000 TL
282 2015 Ssangyong TIVOLI D1.6 4x2 AT İstanbul 11.5.2026 15:30 1.000 TL
283 2007 Renault GRAND SCENIC 1.5 DCI Nevşehir 11.5.2026 15:30 1.000 TL
284 2018 Iveco CEKICI STRALIS HI-WAY AS440S48T/FP LT E6 Şehir Seç 11.5.2026 15:30 1.000 TL
285 2020 Hyundai i20 1.4 MPI 100 İstanbul 11.5.2026 15:30 1.000 TL
286 2019 Kia SPORTAGE 1.6 DIZEL 136 DCT İstanbul 11.5.2026 15:30 1.000 TL
287 2022 Hyundai i20 1.4 MPI 100 Nevşehir 11.5.2026 15:30 1.000 TL
288 2025 Bmw X1 XDRIVE25e 1.5 245 X-LINE İstanbul 11.5.2026 15:30 1.000 TL
289 2025 Peugeot 2008 GT 1.2 PURETECH 130 EAT8 FL Kocaeli 11.5.2026 15:30 1.000 TL
290 2025 Bmw 120 1.5 170 M SPORT İstanbul 11.5.2026 15:30 1.000 TL
291 2024 Peugeot 2008 GT 1.2 PURETECH 130 EAT8 FL Şehir Seç 11.5.2026 15:30 1.000 TL
292 2017 Jeep RENEGADE 1.6 Ankara 11.5.2026 15:30 1.000 TL
293 1998 Renault BRODWAY 1.4 Kırşehir 11.5.2026 15:30 1.000 TL
294 2013 Peugeot 301 1.6 HDi Ankara 11.5.2026 15:30 1.000 TL
295 2013 Renault FLUENCE 1.6 DCI Ankara 11.5.2026 15:30 1.000 TL
296 2015 Opel INSIGNIA NB 1.6D Afyonkarahisar 11.5.2026 15:30 1.000 TL
297 2025 Renault TRAFIC İzmir 11.5.2026 15:30 1.000 TL
298 2016 Opel INSIGNIA NB 1.6D İstanbul 11.5.2026 15:30 1.000 TL
299 2016 Volkswagen POLO 1.2 TSI Şehir Seç 11.5.2026 15:30 1.000 TL
300 2016 Fiat/Tofaş DOBLO CARGO MAXI 1.3 M.JET İstanbul 11.5.2026 15:30 1.000 TL
301 2020 Renault CLIO 1.5 BLUEDCI İstanbul 11.5.2026 15:30 1.000 TL
302 2018 Fiat/Tofaş EGEA 1.3 M.JET İstanbul 11.5.2026 15:30 1.000 TL
303 2020 Toyota COROLLA 1.6 FLAME Ankara 11.5.2026 15:30 1.000 TL
304 2023 Hyundai i20 N 1.6 T-GDI İzmir 11.5.2026 15:30 1.000 TL
305 2014 Citroen C-ELYSEE 1.2 VTI Kayseri 11.5.2026 15:30 1.000 TL
306 2008 Dacia LOGAN 1.5 DCI İzmir 11.5.2026 15:30 1.000 TL
307 2020 Hyundai i20 FL 1.4 MPI Ankara 11.5.2026 15:30 1.000 TL
308 2024 Motorsiklet TK03 İstanbul 11.5.2026 15:30 1.000 TL
309 1998 Renault MEGANE 2.0e Kayseri 11.5.2026 15:30 1.000 TL
310 2025 Toyota C-HR 1.8 HYBRID Bursa 11.5.2026 15:30 1.000 TL
311 2025 Renault MEGANE SEDAN 1.3 TCE Sivas 11.5.2026 15:30 1.000 TL
312 2017 Land Rover RANGE ROVER 3.0 D İstanbul 11.5.2026 15:30 1.000 TL
313 1994 Renault 21 OPTIMA Yozgat 11.5.2026 15:30 1.000 TL
314 2004 Ford FIESTA 1.4 COMFORT Aksaray 11.5.2026 15:30 1.000 TL
315 2024 Motorsiklet Regal Raptor X SUV 125 İstanbul 11.5.2026 15:30 TL
316 2011 Volkswagen CADDY KOMBI 1.6 TDI Manisa 11.5.2026 15:30 1.000 TL
317 2013 Motorsiklet YAMAHA FZ8 Kırklareli 11.5.2026 15:30 1.000 TL
318 2022 Ford CEKICI F-MAX Gaziantep 11.5.2026 15:30 1.000 TL
319 2000 Fiat/Tofaş SCUDO EL VAN 1.9 D Kırklareli 11.5.2026 15:30 1.000 TL
320 2021 Volkswagen CADDY KOMBI 2.0 TDI Zonguldak 11.5.2026 15:30 1.000 TL
321 2009 Karsan J9 PREMIER MAXI 14+1 MINIBUS Yalova 11.5.2026 15:30 1.000 TL
322 2017 Honda SCR 110 Antalya 11.5.2026 15:30 1.000 TL
323 2010 Hyundai ACCENT ERA 1.4 START Antalya 11.5.2026 15:30 1.000 TL
324 2024 Honda PCX 125 İstanbul 11.5.2026 15:30 1.000 TL
325 2023 Honda PCX 125 İzmir 11.5.2026 15:30 1.000 TL
326 2022 Citroen C-ELYSEE 1.5 BLUEHDI 100 Gaziantep 11.5.2026 15:30 1.000 TL
327 2012 Opel CORSA 1.2i T.PORT ESSENTIA Sakarya 11.5.2026 15:30 1.000 TL
328 2025 Motorsiklet 125 DRIFT L Ankara 11.5.2026 15:30 1.000 TL
329 2020 Motorsiklet SK 125-12A Mersin 11.5.2026 15:30 1.000 TL
330 2015 Motorsiklet MT 07 Adana 11.5.2026 15:30 1.000 TL
331 2005 Citroen C3 SX 1.4D Nevşehir 11.5.2026 15:30 1.000 TL
332 2023 Chery TIGGO 7 PRO 1.6 T-GDI Diyarbakır 11.5.2026 15:30 1.000 TL
333 2024 Motorsiklet 250 SR Eskişehir 11.5.2026 15:30 1.000 TL
334 2020 Motorsiklet MT-25 Batman 11.5.2026 15:30 1.000 TL
335 2017 Fiat/Tofaş DOBLO COMBI 1.6 M.JET EdİRne 11.5.2026 15:30 1.000 TL
336 2011 Fiat/Tofaş LINEA 1.3 MULTIJET (90) Isparta 11.5.2026 15:30 1.000 TL
337 1994 Fiat/Tofaş TEMPRA S Samsun 11.5.2026 15:30 1.000 TL
338 2018 Motorsiklet MT 07 ABS Kayseri 11.5.2026 15:30 1.000 TL
339 2018 Volkswagen PASSAT 1.6 TDI BMT Diyarbakır 11.5.2026 15:30 1.000 TL
340 2005 Motorsiklet YBR 125 Antalya 11.5.2026 15:30 1.000 TL
341 1989 Renault R 1339 Mersin 11.5.2026 15:30 1.000 TL
342 2002 Fiat/Tofaş DOGAN 1.6 İstanbul 11.5.2026 15:30 1.000 TL
343 2023 Peugeot RIFTER 1.5 BLUEHDI Tekirdağ 11.5.2026 15:30 1.000 TL
344 2023 Motorsiklet LAMBRETTA V200 SPECIAL FLEX Antalya 11.5.2026 15:30 1.000 TL
345 2000 Citroen BERLINGO 1.9 Trabzon 11.5.2026 15:30 1.000 TL
346 2004 Renault KANGOO 1.5 DCI Ankara 11.5.2026 15:30 1.000 TL
347 2006 Audi A3 1.6 FSI Şehir Seç 11.5.2026 15:30 1.000 TL
348 2013 Toyota YARIS 1.33 Elazığ 11.5.2026 15:30 1.000 TL
349 2012 Ford CEKICI CARGO 1838T 4x2 Şehir Seç 11.5.2026 15:30 1.000 TL
350 2011 Renault TRAFIC MULTIX GRAND CONFORT 2.0 DCI İstanbul 11.5.2026 15:30 1.000 TL
351 1994 Fiat/Tofaş SAHIN 1.6 Hatay 11.5.2026 15:30 1.000 TL
352 2015 Bmw 116d 5 KAPI İstanbul 11.5.2026 15:30 1.000 TL
353 2025 Honda FORZA 250 İstanbul 11.5.2026 15:30 1.000 TL
354 2005 Fiat/Tofaş DOBLO 1.2 Elazığ 11.5.2026 15:30 1.000 TL
355 2019 Seat LEON 1.6 TDI Erzurum 11.5.2026 15:30 1.000 TL
356 2013 Honda CGX 125 Hatay 11.5.2026 15:30 1.000 TL
357 2023 Motorsiklet M 502N Sivas 11.5.2026 15:30 1.000 TL
358 2003 Opel CORSA 1.7 DTI Samsun 11.5.2026 15:30 1.000 TL
359 1996 Ford ESCORT CLX 1.6 Sivas 11.5.2026 15:30 1.000 TL
360 2023 Motorsiklet TURISMO 50i Balıkesir 11.5.2026 15:30 1.000 TL
361 2023 Motorsiklet RAIDER 125 İzmir 11.5.2026 15:30 1.000 TL
362 2016 Motorsiklet JOYMAX 250i Çanakkale 11.5.2026 15:30 1.000 TL
363 2016 Nissan JUKE 1.5 DCI SKY PACK İstanbul 11.5.2026 15:30 1.000 TL
364 2021 Honda DIO 110 İstanbul 11.5.2026 15:30 1.000 TL
365 2016 Kia CERATO 1.6 DIZEL İstanbul 11.5.2026 15:30 1.000 TL
366 2004 Citroen XSARA X 1.4 HDI Şehir Seç 11.5.2026 15:30 1.000 TL
367 2011 Ford T. CONNECT KOMBI K210S 1.8 TDCİ Kayseri 11.5.2026 15:30 1.000 TL
368 2024 Motorsiklet SUPERLIGHT 125 Şehir Seç 11.5.2026 15:30 1.000 TL
369 2026 Citroen BERLINGO 1.5 BLUEHDI Şehir Seç 11.5.2026 15:30 1.000 TL
370 2024 Kia PICANTO 1.0 İstanbul 11.5.2026 15:30 1.000 TL
371 2014 Motorsiklet PULSAR 200 NS Şehir Seç 11.5.2026 15:30 1.000 TL
372 2024 Motorsiklet LTR 125 Zonguldak 11.5.2026 15:30 1.000 TL
373 2001 Renault CLIO 1.4 Şehir Seç 11.5.2026 15:30 1.000 TL
374 2015 Fiat/Tofaş DOBLO CARGO MAXI 1.3 M.JET 90 Uşak 11.5.2026 15:30 1.000 TL
375 2017 Skoda OCTAVIA 1.6 TDI Van 11.5.2026 15:30 1.000 TL
376 2016 Peugeot PARTNER TEPEE 1.6 HDI Şehir Seç 11.5.2026 15:30 1.000 TL
377 1996 Fiat/Tofaş DOĞAN SLX Mersin 11.5.2026 15:30 1.000 TL
378 1996 Fiat/Tofaş UNO SX Şehir Seç 11.5.2026 15:30 1.000 TL
379 2012 Fiat/Tofaş PUNTO 1.3 MULTIJET Ankara 11.5.2026 15:30 1.000 TL
380 2008 Kia BONGO KAMYONET K2500 Sakarya 11.5.2026 15:30 1.000 TL
381 2009 Ford FOCUS 1.6 TDCi TREND (109) Aksaray 11.5.2026 15:30 1.000 TL
382 2019 Mercedes A 180 d SEDAN 1.5 İzmir 11.5.2026 15:30 1.000 TL
383 1994 Fiat/Tofaş ŞAHİN 1.6 Denizli 11.5.2026 15:30 1.000 TL
384 1994 Mercedes E 200 Afyonkarahisar 11.5.2026 15:30 1.000 TL
385 2013 Mercedes SPRINTER 16+1 Gaziantep 11.5.2026 15:30 1.000 TL
386 2022 Motorsiklet 125 DRIFT L Samsun 11.5.2026 15:30 1.000 TL
387 2015 Fiat/Tofaş LINEA 1.3 MULTIJET Afyonkarahisar 11.5.2026 15:30 1.000 TL
388 1990 Fiat/Tofaş SAHIN 1.6 Denizli 11.5.2026 15:30 1.000 TL
389 2012 Tata VISTA 1.3 CRDI QUADROJET Şehir Seç 11.5.2026 15:30 1.000 TL
390 2005 Dorse/Römork Schmitz Cargobull RÖMORK Şehir Seç 11.5.2026 15:30 TL
391 2023 Citroen C4 1.2 PURETECH Kocaeli 11.5.2026 15:30 1.000 TL
392 2014 Ford FIESTA 1.6i Antalya 11.5.2026 15:30 1.000 TL
393 1998 Fiat/Tofaş PALIO 1.6 Kastamonu 11.5.2026 15:30 1.000 TL
394 2005 Renault KANGOO CONFORT 1.5 DCI Denizli 11.5.2026 15:30 1.000 TL
395 2023 Renault CLIO 1.0 TCE Bursa 11.5.2026 15:30 1.000 TL
396 2012 Ford TRANSIT 300 S VAN Diyarbakır 11.5.2026 15:30 1.000 TL
397 1999 Renault R9 BROADWAY 1.4 Afyonkarahisar 11.5.2026 15:30 1.000 TL
398 2025 Motorsiklet LAVINIA PRO 125 Kayseri 11.5.2026 15:30 1.000 TL
399 2012 Ford TRANSIT 11+1 Batman 11.5.2026 15:30 1.000 TL
400 2006 Ford FOCUS 1.6 TDCi TREND (109) Aydın 11.5.2026 15:30 1.000 TL
401 2012 Opel CORSA 1.2i TWINPORT Mersin 11.5.2026 15:30 1.000 TL
402 2010 Citroen C5 3 SX 1.6 HDI Eskişehir 11.5.2026 15:30 1.000 TL
403 2024 Honda PCX 125 Manisa 11.5.2026 15:30 1.000 TL
404 2021 Honda PCX 125 Denizli 11.5.2026 15:30 1.000 TL
405 2016 Volkswagen POLO 1.2 TSI BMT 90 İstanbul 11.5.2026 15:30 1.000 TL
406 2022 Motorsiklet CAPUCCINO 125 İstanbul 11.5.2026 15:30 1.000 TL
407 1992 Renault L 423 Sakarya 11.5.2026 15:30 1.000 TL
408 2008 Renault SYMBOL 1.4 EXTREME Samsun 11.5.2026 15:30 1.000 TL
409 2018 Fiat/Tofaş EGEA HB 1.6 E 120 Bolu 11.5.2026 15:30 1.000 TL
410 2015 Volkswagen CC 1.4 TSI BMT 160 Antalya 11.5.2026 15:30 1.000 TL
411 2012 Opel ASTRA NB ENJOY 1.3 CDTI (90) Antalya 11.5.2026 15:30 1.000 TL
412 2021 Opel CORSA 1.2 100 Ankara 11.5.2026 15:30 1.000 TL
413 2016 Dacia LODGY 1.5 DCI 90 Adana 11.5.2026 15:30 1.000 TL
414 2010 Peugeot PARTNER TEPEE 1.6 HDI Düzce 11.5.2026 15:30 1.000 TL
415 2004 Hyundai ACCENT İstanbul 11.5.2026 15:30 1.000 TL
416 2011 Mercedes AXOR 1840 LS İstanbul 11.5.2026 15:30 1.000 TL
417 2015 Volkswagen JETTA 1.2 TSI Mersin 11.5.2026 15:30 1.000 TL
418 2020 Fiat/Tofaş PRATICO KAMYONET 1.6 M.JET Antalya 11.5.2026 15:30 1.000 TL
419 2024 Honda PCX 125 Samsun 11.5.2026 15:30 1.000 TL
420 2021 Motorsiklet EXPLORER 250 Kırklareli 11.5.2026 15:30 1.000 TL
421 2016 Fiat/Tofaş EGEA 1.3 M.JET 95 Antalya 11.5.2026 15:30 1.000 TL
422 2011 Ford FIESTA 1.4 TDCi Karaman 11.5.2026 15:30 1.000 TL
423 2016 Kia CERATO 1.6 DIZEL 136 DCT İstanbul 11.5.2026 15:30 1.000 TL
424 2011 Volkswagen SCIROCCO 1.4 TSI 160 Mersin 11.5.2026 15:30 1.000 TL
425 2003 Opel COMBO 1.7 DTI Konya 11.5.2026 15:30 1.000 TL
426 2017 Bmw 530I XDRIVE 2.0 SEDAN 252 OV Ankara 11.5.2026 15:30 1.000 TL
427 2024 Peugeot 2008 1.2 PURETECH 130 EAT8 GT Adana 11.5.2026 15:30 1.000 TL
428 2024 Ford TOURNEO COURİER 1.5 ECOBLUE DELUXE Adana 11.5.2026 15:30 1.000 TL
429 2025 Hyundai İ20 1.0 T-GDI JUMP İstanbul 11.5.2026 15:30 1.000 TL
430 2024 Kia BONGO KAMYONET 2.5 DIZEL 130 KONFOR İstanbul 11.5.2026 15:30 1.000 TL
431 2025 Hyundai BAYON FL 1.0 T-GDI 100 STYLE DCT Ankara 11.5.2026 15:30 1.000 TL
432 2023 Renault TAILANT 1,0 İstanbul 11.5.2026 15:30 1.000 TL
433 2015 Seat LEON 1.6 Şanlıurfa 11.5.2026 15:30 1.000 TL
434 2013 Seat ALHAMBRA 1.4 TSI İstanbul 11.5.2026 15:30 1.000 TL
435 2020 Fiat/Tofaş EGEA 1.3 M.JET Nevşehir 11.5.2026 15:30 1.000 TL
436 2014 Renault MEGANE HB 1.5 Manisa 11.5.2026 15:30 1.000 TL
437 2020 Fiat/Tofaş DOBLO 1.3 M.JET Kayseri 11.5.2026 15:30 1.000 TL
438 2014 Renault FLUENCE 1.5 İzmir 11.5.2026 15:30 1.000 TL
439 2009 Ford FOCUS 1.6 Hatay 11.5.2026 15:30 1.000 TL
440 2016 Fiat/Tofaş DOBLO 1.3 M.JET Manisa 11.5.2026 15:30 1.000 TL
441 2013 Ford TRANSIT Çorum 11.5.2026 15:30 1.000 TL
442 2019 Motorsiklet YAMAHA MTN690-A İstanbul 11.5.2026 15:30 1.000 TL
443 2025 Motorsiklet CFMOTO 450 SR İstanbul 11.5.2026 15:30 1.000 TL
444 2022 Motorsiklet KTM RC 390 İstanbul 11.5.2026 15:30 1.000 TL
445 2026 Audi Q2 1.5 Ankara 11.5.2026 15:30 1.000 TL
446 2026 Renault CLIO 1.0 TCE İzmir 11.5.2026 15:30 1.000 TL
447 2024 Hyundai i20 1.0 Aksaray 11.5.2026 15:30 1.000 TL
448 2025 Fiat/Tofaş DOBLO CARGO MAXI 1.5 Kayseri 11.5.2026 16:30 376.000 TL
449 2016 Audi A5 COUPE 2.0 TDI QUATTRO Antalya 11.5.2026 16:30 1.320.500 TL
450 2006 Hyundai ACCENT 1.5 CRDI ADMIRE (Y) Sakarya 11.5.2026 16:30 102.000 TL
451 2021 Mercedes EQC 400 4MATIC ELECTRIC İstanbul 11.5.2026 16:30 1.800.000 TL
452 2012 Renault SYMBOL AUTHENTIQUE EDITION 1.2 16V LPG 75 E5 Kocaeli 11.5.2026 16:30 158.000 TL
453 1999 Opel CORSA SWING 1.2i Afyonkarahisar 11.5.2026 16:30 137.500 TL
454 2010 Volkswagen JETTA 1.6 PRIMELINE Balıkesir 11.5.2026 16:30 371.750 TL
455 2017 Skoda SUPERB 1.6 TDI Kayseri 11.5.2026 16:30 858.500 TL
456 2012 Mercedes AXOR 1840 LS E4 Şehir Seç 11.5.2026 16:30 1.000 TL
457 2010 Hyundai i30 CW 1.6 CRDi MODE İstanbul 11.5.2026 16:30 1.500 TL
458 1998 Citroen SAXO 1.6 VTR Tokat 11.5.2026 16:30 1.000 TL
459 2021 Honda PCX 125 İstanbul 11.5.2026 16:30 10.500 TL
460 1997 Renault R9 BROADWAY 1.4 Tokat 11.5.2026 16:30 21.000 TL
461 2023 Ford FOCUS 1.0 ECOBOOST Tokat 11.5.2026 16:30 111.000 TL
462 2015 Motorsiklet PLEASURE 100 Muğla 11.5.2026 16:30 1.000 TL
463 1990 Fiat/Tofaş SAHIN 1.6 İzmir 11.5.2026 16:30 1.000 TL
464 2002 Volvo S40 2.0 Ankara 11.5.2026 16:30 500 TL
465 1993 Fiat/Tofaş SAHİN 1.6 Ankara 11.5.2026 16:30 1.000 TL
466 2024 Motorsiklet MAX PRO 125 Konya 11.5.2026 16:30 2.000 TL
467 2021 Honda DIO Balıkesir 11.5.2026 16:30 1.000 TL
468 2022 Motorsiklet 125 DRFİT L Isparta 11.5.2026 16:30 1.000 TL
469 2017 Bmw 530i XDRIVE Diyarbakır 11.5.2026 16:30 1.475.000 TL
470 2005 Volkswagen LT 35 2,5 TDİ Şanlıurfa 11.5.2026 16:30 1.000 TL
471 2003 Land Rover FREELANDER 2.0 Aydın 11.5.2026 16:30 1.000 TL
472 2011 Ford FOCUS 1.6 TDCi COLLECTION Ankara 11.5.2026 16:30 1.000 TL
473 1998 Fiat/Tofaş BRAVO 1.6 SX Karaman 11.5.2026 16:30 1.000 TL
474 2025 Honda PCX 125 Muğla 11.5.2026 16:30 5.000 TL
475 2020 Toyota COROLLA 1.6 Düzce 11.5.2026 16:30 1.000 TL
476 2024 Motorsiklet BRILLIANT 50 PLUS İstanbul 11.5.2026 16:30 1.000 TL
477 2021 Honda CIVIC 1.6İ VTEC İstanbul 11.5.2026 16:30 1.000 TL
478 2017 Peugeot PARTNER 1.6 HDI Erzurum 11.5.2026 16:30 1.000 TL
479 2023 Motorsiklet PULSAR RS 200 Balıkesir 11.5.2026 16:30 1.000 TL
480 1979 Renault R12 TOROS Aydın 11.5.2026 16:30 1.000 TL
481 2003 Peugeot BOXER Balıkesir 11.5.2026 16:30 1.000 TL
482 2022 Fiat/Tofaş EGEA 1.3 MULTIJET İstanbul 11.5.2026 16:30 1.000 TL
483 1992 Toyota COROLLA GL 1.6 Kocaeli 11.5.2026 16:30 35.000 TL
484 2010 Kia RIO 1.4 Bolu 11.5.2026 16:30 1.000 TL
485 2020 Fiat/Tofaş EGEA 1.3 MULTIJET İstanbul 11.5.2026 16:30 1.000 TL
486 2013 Chevrolet CRUZE 1.6 Ankara 11.5.2026 16:30 1.000 TL
487 2001 Volkswagen GOLF 1.6 COMFORT Kayseri 11.5.2026 16:30 83.000 TL
488 2008 Renault PREMIUM 440.19 4x2 Tekirdağ 11.5.2026 16:30 1.000 TL
489 2017 Mercedes B 180 İstanbul 11.5.2026 16:30 413.000 TL
490 2020 Fiat/Tofaş EGEA SEDAN EASY 1.6 M.JET 130 DCT GSR Düzce 11.5.2026 16:30 1.000 TL
491 2011 Renault SYMBOL AUTHENTIQUE EDITION 1.2 16V E5 Muğla 11.5.2026 16:30 125.000 TL
492 2016 Opel ASTRA NB 1.6 DIZEL 110 S&S İzmir 11.5.2026 16:30 355.000 TL
493 2013 Honda CIVIC HB 1.6 i-DTEC COMFORT İzmir 11.5.2026 16:30 10.000 TL
494 2024 Hyundai i20 FL 1.0 T 100 STYLE DCT Konya 11.5.2026 16:30 1.000 TL
495 2007 Renault MEGANE II SEDAN EXPRESSION 1.5 DCI (100) Kocaeli 11.5.2026 16:30 1.000 TL
496 2012 Fiat/Tofaş DOBLO CLASSIC SAFELINE 1.3 M.JET Sakarya 11.5.2026 16:30 1.000 TL
497 2009 Honda CIVIC SEDAN ECO ELEGANCE 1.6 (125) OV Rize 11.5.2026 16:30 1.000 TL
498 2022 Motorsiklet MONDIAL 125 DRIFT L CBS Samsun 11.5.2026 16:30 1.000 TL
499 2025 Bmw 520i SEDAN 1.6 (190) M SPORT İzmir 11.5.2026 16:30 2.021.000 TL
500 2023 Motorsiklet HONDA DIO Afyonkarahisar 11.5.2026 16:30 1.000 TL
501 2006 Ford FIESTA GHIA 5 KAPI 1.6 TDCi Tekirdağ 11.5.2026 16:30 1.000 TL
502 2011 Hyundai ELANTRA 1.6 D-CVVT MODE OV Ankara 11.5.2026 16:30 1.000 TL
503 2004 Toyota YARIS 1.3 SOL (ESKI KASA İstanbul 11.5.2026 16:30 1.000 TL
504 2023 Ford TOURNEO COURIER 1.0 E.BOOST 100 TITANIUMPLUS İstanbul 11.5.2026 16:30 1.000 TL
505 2026 Motorsiklet MONDIAL FUZION 125 Denizli 11.5.2026 16:30 1.000 TL
506 1990 Fiat/Tofaş KARTAL S İzmir 11.5.2026 16:30 1.000 TL
507 2015 Ford FOCUS III MCA TREND X 1.6 TDCI 95 4K İstanbul 11.5.2026 16:30 1.000 TL
508 2013 Ford FOCUS III TITANIUM 1.6 TDCi (115) 5K Afyonkarahisar 11.5.2026 16:30 1.000 TL
509 2023 Motorsiklet MUHTELIF Samsun 11.5.2026 16:30 1.000 TL
510 2025 Kia EV3 (204) AT PRESTIGE STANDART RANGE Denizli 11.5.2026 16:30 425.000 TL
511 2020 Fiat/Tofaş FIORINO COMBI SAFELINE 1.4 FIRE 77 E6D Iğdır 11.5.2026 16:30 1.000 TL
512 1993 Chrysler GRAND CHEROKEE LIMITED 5.2 Tekirdağ 11.5.2026 16:30 10.000 TL
513 2021 Toyota HILUX 2.4 D-4D 150 4x4 ADVENTURE Ankara 11.5.2026 16:30 4.000 TL
514 2021 Volkswagen POLO 1.0 TSI 95 COMFORTLINE DSG Ankara 11.5.2026 16:30 338.000 TL
515 2014 Ford TRANSIT 350M ?IFT KABIN KAMYONET 155 E5 Ankara 11.5.2026 16:30 245.000 TL
516 2025 Ford TOURNEO COURIER 1.0 P 125 AT DELUXE Ankara 11.5.2026 16:30 300.000 TL
517 2023 Traktör ANTONIO CARRARO TGF 8900 PROTECTOR İstanbul 11.5.2026 16:30 251.000 TL
518 2020 Volkswagen PASSAT 1.6 TDI 120 DSG IMPRESSION Ankara 11.5.2026 16:30 17.500 TL
519 2016 Dacia LODGY LAUREATE 1.5 DCI 90 5 KISILIK Ankara 11.5.2026 16:30 255.500 TL
520 2016 Isuzu NLR KAMYONET İstanbul 11.5.2026 16:30 2.500 TL
521 2011 Mitsubishi L200 TEK KABIN K.NET INFORM İstanbul 11.5.2026 16:30 76.000 TL
522 2020 Toyota COROLLA 1.8 HYBRID DREAM E-CVT İstanbul 11.5.2026 16:30 3.000 TL
523 2025 Skoda OCTAVIA PREMIUM 1.5 TSI ACT E-TEC 150 DSG İstanbul 11.5.2026 16:30 250.000 TL
524 2008 Volkswagen PASSAT 2.0 TDI COMFORTLINE DSG 140 Konya 11.5.2026 16:30 1.000 TL
525 2006 Ford T. CONNECT KOMBI K210 S 1.8 TDCI Ankara 11.5.2026 16:30 1.000 TL
526 2022 Fiat/Tofaş EGEA SEDAN URBAN 1.5 T4 HIBRIT 130 AT Ankara 11.5.2026 16:30 1.000 TL
527 2003 Volvo FH 12 42 TB Ankara 11.5.2026 16:30 1.000 TL
528 1998 Kia BESTA PANELVAN Denizli 11.5.2026 16:30 500 TL
529 2025 Ford FOCUS TITANIUM STIL 4K 1.5 ECOBLUE 115 8AT Erzurum 11.5.2026 16:30 2.500 TL
530 2025 Opel MOKKA 1.2 130 AT8 EDITION İstanbul 11.5.2026 16:30 500.500 TL
531 2021 Motorsiklet ALTAI XLINE 50 PRO İstanbul 11.5.2026 16:30 500 TL
532 1999 Opel CORSA 1.4 GLS İstanbul 11.5.2026 16:30 500 TL
533 2024 Motorsiklet MOTOLUX CEO110 İstanbul 11.5.2026 16:30 500 TL
534 2022 Motorsiklet RKS TNT202 Rize 11.5.2026 16:30 500 TL
535 1996 Opel VECTRA 2.0 CD İstanbul 11.5.2026 16:30 500 TL
536 2022 Motorsiklet RKS SPONTINI 110 Çanakkale 11.5.2026 16:30 500 TL
537 2018 Motorsiklet CELIK CM100 Mersin 11.5.2026 16:30 500 TL
538 2024 Fiat/Tofaş DOBLO CARGO MAXI 1.5 100 BLUEHDI FL İstanbul 11.5.2026 16:30 500 TL
539 1992 Fiat/Tofaş TEMPRA SX Tekirdağ 11.5.2026 16:30 500 TL
540 1996 Renault 19 EUROPA 1.6 HB Zonguldak 11.5.2026 16:30 500 TL
541 2004 Ford FOCUS 1.6I COLLECTION HB İstanbul 11.5.2026 16:30 500 TL
542 2010 Fiat/Tofaş PALIO SOLE 5K PREMIO 1.4 FIRE (77) İstanbul 11.5.2026 16:30 500 TL
543 2007 Renault MASTER VAN 2.5 DCI İstanbul 11.5.2026 16:30 500 TL
544 2001 Fiat/Tofaş SIENA 1.6 HL Gaziantep 11.5.2026 16:30 500 TL
545 1992 Fiat/Tofaş DOGAN 1.6 SLX Samsun 11.5.2026 16:30 500 TL
546 2000 Fiat/Tofaş SIENA 1.4 EL Erzurum 11.5.2026 16:30 500 TL
547 2011 Hyundai I20 1.4 CVVT MODE İstanbul 11.5.2026 16:30 500 TL
548 2000 Peugeot 306 PLATINUM 1.6 5 KAPI İstanbul 11.5.2026 16:30 500 TL
549 2018 Motorsiklet MOTOLUX ROSSI 50 CC SCOOTER Balıkesir 11.5.2026 16:30 500 TL
550 2022 Motorsiklet RKS PRIVATE 125 (GST125T-6) Denizli 11.5.2026 16:30 500 TL
551 2022 Motorsiklet RUTEC BADI 125 (DY125T-16D) İstanbul 11.5.2026 16:30 500 TL
552 2016 Motorsiklet MONDIAL SNAPPYX 100 Erzincan 11.5.2026 16:30 500 TL
553 2022 Motorsiklet RKS SPONTINI 110 (GST110T-14) Tekirdağ 11.5.2026 16:30 1.000 TL
554 2024 Motorsiklet SRK 250 S Ankara 11.5.2026 16:30 1.000 TL
555 2025 Honda PCX 125 DLX İstanbul 11.5.2026 16:30 1.000 TL
556 1993 Fiat/Tofaş DOĞAN 1.6 Antalya 11.5.2026 16:30 1.000 TL
557 2005 Skoda FABIA HB 1.2 İzmir 11.5.2026 16:30 1.000 TL
558 2022 Motorsiklet PULSAR NS 200 UG İstanbul 11.5.2026 16:30 1.000 TL
559 2015 Ford TOURNEO COURIER KOMBI 1.5 TDCI İstanbul 11.5.2026 16:30 1.000 TL
560 1999 Fiat/Tofaş KARTAL S Giresun 11.5.2026 16:30 5.000 TL
561 2025 Honda NSS250A FORZA 250 İstanbul 11.5.2026 16:30 1.000 TL
562 2013 Ford B-MAX TREND 1.6 İzmir 11.5.2026 16:30 1.000 TL
563 1999 Rover 414 Sİ Ankara 11.5.2026 16:30 1.000 TL
564 1997 Volkswagen POLO 1.6 Ankara 11.5.2026 16:30 1.000 TL
565 2024 Motorsiklet RAIDER 125 Ankara 11.5.2026 16:30 1.000 TL
566 2006 Dorse/Römork TENTELİ YARI RÖMORK Mardin 11.5.2026 16:30 36.500 TL
567 2015 Fiat/Tofaş DUCATO KAMYONET İstanbul 11.5.2026 16:30 2.000 TL
568 2001 Renault CLIO SYMBOL 1.4 Mersin 11.5.2026 16:30 5.000 TL
569 2014 Renault SYMBOL JOY 1.5 DCI Kocaeli 12.5.2026 15:15 1.000 TL
570 2021 Fiat/Tofaş EGEA CROSS 1.4 FIRE İstanbul 12.5.2026 15:15 1.000 TL
571 2013 Opel ASTRA SEDAN 1.6 Muğla 12.5.2026 15:15 1.000 TL
572 2024 Nissan QASHQAI 1.3 DIG-T İstanbul 12.5.2026 15:15 500.000 TL
573 2020 Peugeot 2008 1.2 PURETECH Mardin 12.5.2026 15:15 1.000 TL
574 2022 Ford CEKICI F-MAX Bursa 12.5.2026 15:15 1.000 TL
575 2023 Opel MOKKA 1.2 İzmir 12.5.2026 15:15 263.500 TL
576 2015 Ford FOCUS HB 1.6 TDCI Uşak 12.5.2026 15:15 1.000 TL
577 2020 Fiat/Tofaş EGEA SEDAN 1.4 FIRE İzmir 12.5.2026 15:15 1.000 TL
578 2005 Mercedes KAMYON AXOR 2523 CD Sakarya 12.5.2026 15:15 1.000 TL
579 2023 Ford CEKICI F-MAX Muğla 12.5.2026 15:15 1.000 TL
580 2023 Ford TRANSIT CUSTOM VAN İstanbul 12.5.2026 15:15 1.000 TL
581 2019 Renault MEGANE SEDAN JOY 1.3 TCE İstanbul 12.5.2026 15:15 500 TL
582 2025 Volkswagen CADDY KOMBI 2.0 TDI Uşak 12.5.2026 15:15 666.500 TL
583 2013 Volkswagen CRAFTER SERVIS 18+1 Ankara 12.5.2026 15:15 10.000 TL
584 2022 Renault MEGANE SEDAN JOY 1.3 TCE İstanbul 12.5.2026 15:15 1.000 TL
585 2017 Peugeot 3008 1.6 BLUEHDI İzmir 12.5.2026 15:15 444.000 TL
586 2022 Fiat/Tofaş EGEA SEDAN EASY 1.6 M.JET İstanbul 12.5.2026 15:15 1.000 TL
587 2012 Toyota COROLLA SEDAN 1.4D-4D Konya 12.5.2026 15:15 1.000 TL
588 2017 Honda CIVIC SEDAN 1.6i VTEC İzmir 12.5.2026 15:15 101.000 TL
589 2025 Hyundai TUCSON 1.6 T-GDI Ankara 12.5.2026 15:15 905.500 TL
590 2023 Opel MOKKA 1.2 Uşak 12.5.2026 15:15 1.000 TL
591 2024 Nissan QASHQAI 1.3 DIG-T İstanbul 12.5.2026 15:15 905.500 TL
592 2023 Chery TIGGO 8 PRO 1.6 T-GDI İstanbul 12.5.2026 15:15 900.000 TL
593 2023 Fiat/Tofaş EGEA SEDAN EASY 1.4 FIRE İstanbul 12.5.2026 15:15 1.000 TL
594 2022 Hyundai i20 1.4 MPI İstanbul 12.5.2026 15:15 500 TL
595 1997 Man CEKICI 19.463 FLT (4x2) Tekirdağ 12.5.2026 15:15 500 TL
596 2023 Volkswagen GOLF 1.0 eTSI İstanbul 12.5.2026 15:15 1.000 TL
597 2025 Byd SEAL U DM-I Mardin 12.5.2026 15:15 900.000 TL
598 2015 Mercedes E 180 1.6 Samsun 12.5.2026 15:15 902.500 TL
599 2015 Citroen JUMPER MINIBUS 16+1 2.2 HDI Sakarya 12.5.2026 15:15 215.500 TL
600 2023 Peugeot 3008 1.5 BLUEHDI Çanakkale 12.5.2026 15:15 500 TL
601 2025 Audi Q2 35 TFSI ADVANCED Çanakkale 12.5.2026 15:15 603.000 TL
602 2020 Honda CR-V 1.5i VTEC Zonguldak 12.5.2026 15:15 333.000 TL
603 2023 Mg HS 1.5 İstanbul 12.5.2026 15:30 1.000 TL
604 1994 Mazda 323 1.6 Erzurum 12.5.2026 15:30 1.000 TL
605 2000 Ford FOCUS 1.6 Bursa 12.5.2026 15:30 1.000 TL
606 1997 Renault TWINGO 1.2 İstanbul 12.5.2026 15:30 1.000 TL
607 2023 Skoda KAMIQ 1.5 TSI Ankara 12.5.2026 15:30 1.000 TL
608 2012 Fiat/Tofaş LINEA SEDAN 1.3 MULTIJET Denizli 12.5.2026 15:30 1.000 TL
609 2014 Motorsiklet Z800 ABS Edirne 12.5.2026 15:30 1.000 TL
610 2008 Peugeot BIPPER KOMBI COMFORT 1.4 HDI Kütahya 12.5.2026 15:30 1.000 TL
611 2024 Citroen EC4 X Antalya 12.5.2026 15:30 1.000 TL
612 2017 Ford TRANSIT 350 L VAN Iğdır 12.5.2026 15:30 1.000 TL
613 1993 Skoda FAVORIT 135 LX İstanbul 12.5.2026 15:30 1.000 TL
614 2009 Chery TIGGO 1.6 Bursa 12.5.2026 15:30 1.000 TL
615 2024 Motorsiklet FR177 İzmir 12.5.2026 15:30 1.000 TL
616 2022 Fiat/Tofaş EGEA SEDAN EASY 1.3 M.JET İstanbul 12.5.2026 15:30 1.000 TL
617 2012 Fiat/Tofaş LINEA ACTIVE PLUS 1.6 MULTIJET Şehir Seç 12.5.2026 15:30 1.000 TL
618 2020 Hyundai i20 1.4 MPI İstanbul 12.5.2026 15:30 1.000 TL
619 2017 Renault CLIO 1.5 DCI İstanbul 12.5.2026 15:30 1.000 TL
620 2015 Volkswagen PASSAT 1.6 TDI İzmir 12.5.2026 15:30 1.000 TL
621 2016 Renault MEGANE HB 1.2 TCE Mersin 12.5.2026 15:30 1.000 TL
622 2014 Honda CR-V 1.6 DIZEL Konya 12.5.2026 15:30 1.000 TL
623 2010 Kia CEED SPORTYWAGON 1.6 CRDI Sakarya 12.5.2026 15:30 1.000 TL
624 2024 Opel MOKKA 1.2 Diyarbakır 12.5.2026 15:30 1.000 TL
625 2017 Toyota COROLLA 1.4 D-4D Samsun 12.5.2026 15:30 1.000 TL
626 2019 Volkswagen POLO 1.0 TSI 95 Balıkesir 12.5.2026 15:30 1.000 TL
627 2019 Peugeot 301 SEDAN 1.2 PURETECH Samsun 12.5.2026 15:30 1.000 TL
628 2024 Motorsiklet SPONTINI 125 MAX Sakarya 12.5.2026 15:30 1.000 TL
629 2012 Bmw X3 XDRIVE 20d Balıkesir 12.5.2026 15:30 1.000 TL
630 2012 Ford TRANSIT CONNECT KOMBI K210S 1.8 TDCI SILVER Trabzon 12.5.2026 15:30 1.000 TL
631 2024 Motorsiklet JUPİTER 110 Aydın 12.5.2026 15:30 1.000 TL
632 2013 Opel CORSA 1.2i TWINPORT Ankara 12.5.2026 15:30 1.000 TL
633 2023 Citroen C5 AIRCROSS 1.5 BLUHDI Aydın 12.5.2026 15:30 1.000 TL
634 2020 Fiat/Tofaş EGEA HB 1.4 FIRE İzmir 12.5.2026 15:30 1.000 TL
635 2017 Toyota COROLLA 1.6 Sakarya 12.5.2026 15:30 1.000 TL
636 2023 Opel ASTRA HB 1.2 T Balıkesir 12.5.2026 15:30 1.000 TL
637 2017 Dacia SANDERO 1.5 DCI İstanbul 12.5.2026 15:30 1.000 TL
638 2016 Peugeot 508 1.6 BLUEHDI İstanbul 12.5.2026 15:30 1.000 TL
639 2025 Dorse/Römork ADİLSERT DORSE YARI RÖMORK Osmaniye 12.5.2026 15:30 1.000 TL
640 2004 Ford FOCUS C-MAX 1.6 GHIA İstanbul 12.5.2026 15:30 1.000 TL
641 2023 Ds DS 4 İstanbul 12.5.2026 15:30 1.000 TL
642 2024 Kgmobılıty TORRES EVX Antalya 12.5.2026 15:30 1.000 TL
643 2024 Honda PCX 125 Ankara 12.5.2026 15:30 1.000 TL
644 1998 Volvo FH 12 420 4X2 Ankara 12.5.2026 15:30 1.000 TL
645 2024 Motorsiklet SAFARI 50 Trabzon 12.5.2026 15:30 1.000 TL
646 2022 Ford TRANSIT COURIER VAN KISA 1.5 TDCI Amasya 12.5.2026 15:30 1.000 TL
647 1992 Renault R9 GTE BROADWAY Van 12.5.2026 15:30 1.000 TL
648 2026 Dorse/Römork TENTELİ YARI RÖMORK Konya 12.5.2026 15:30 1.000 TL
649 2023 Bmw 1000 RR Ankara 12.5.2026 15:30 1.000 TL
650 2023 Kia BONGO KAMYONET 2.5 DIZEL İzmir 12.5.2026 15:30 1.000 TL
651 2016 Dacia DOKKER 1.5 DCI Bursa 12.5.2026 15:30 1.000 TL
652 2015 Isuzu DMAX CIFTKABIN KAMYONET 2.5 4x4 VCROSS Kayseri 12.5.2026 15:30 1.000 TL
653 1993 Fiat/Tofaş TEMPRA Ankara 12.5.2026 15:30 1.000 TL
654 2017 Audi A3 SPORTBACK 1.0 TFSI Bursa 12.5.2026 15:30 1.000 TL
655 2025 Motorsiklet NMAX 125 Ankara 12.5.2026 15:30 1.000 TL
656 2011 Fiat/Tofaş FIORINO 1.3 MULTIJET Ankara 12.5.2026 15:30 1.000 TL
657 2024 Motorsiklet RK 125 S Çorum 12.5.2026 15:30 1.000 TL
658 2024 Motorsiklet R7 Kayseri 12.5.2026 15:30 1.000 TL
659 2021 Hyundai TUCSON 1.6 CRDI Gaziantep 12.5.2026 15:30 1.000 TL
660 1998 Renault 12 TOROS SW Nevşehir 12.5.2026 15:30 1.000 TL
661 2011 Dacia SANDERO 1,5 DCİ Ankara 12.5.2026 15:30 1.000 TL
662 2024 Citroen C-ELYSEE 1.5 BLUEHDI İstanbul 12.5.2026 15:30 1.000 TL
663 2024 Motorsiklet FRECCIA 150 İstanbul 12.5.2026 15:30 1.000 TL
664 2014 Audi A3 SEDAN 1.6 TDI İzmir 12.5.2026 15:30 1.000 TL
665 2021 Honda PCX 125 İzmir 12.5.2026 15:30 1.000 TL
666 2010 Fiat/Tofaş PARTNER TEPEE PREMIUM 1.6 HDI (90) Ankara 12.5.2026 15:30 1.000 TL
667 2017 Mercedes KAMYON ATEGO 1518 Tekirdağ 12.5.2026 15:30 1.000 TL
668 2012 Chevrolet AVEO 1,3 Bursa 12.5.2026 15:30 1.000 TL
669 2021 Fiat/Tofaş PANDA 1.0 İstanbul 12.5.2026 15:30 1.000 TL
670 1991 Fiat/Tofaş ŞAHİN 1.6 SEDAN Trabzon 12.5.2026 15:30 1.000 TL
671 2025 Peugeot BOXER VAN 2.2 BLUEHDI 180 İstanbul 12.5.2026 15:30 1.000 TL
672 2001 Opel MOVANO 2.8 Kahramanmaraş 12.5.2026 15:30 1.000 TL
673 2012 Volkswagen BEETLE 1.2 TSI DESIGN İzmir 12.5.2026 15:30 1.000 TL
674 2022 Renault MEGANE 1,3 TCE Tekirdağ 12.5.2026 15:30 1.000 TL
675 2005 Ford FIESTA 1.4 TDCi COMFORT VAN Mersin 12.5.2026 15:30 1.000 TL
676 2013 Renault MEGANE HB 1.5 DCI 90 İzmir 12.5.2026 15:30 1.000 TL
677 2000 Opel ASTRA HB 1.6 İzmir 12.5.2026 15:30 1.000 TL
678 2020 Iveco KAMYON EUROCARGO MLC 150 E 21 6570 E6 İstanbul 12.5.2026 15:30 1.000 TL
679 2021 Mercedes CEKICI ACTROSS 1845 LS Hatay 12.5.2026 15:30 1.000 TL
680 2023 Jeep AVENGER SUMMIT ELEKTRİK Antalya 12.5.2026 15:30 1.000 TL
681 2015 Opel ASTRA HB 1.4 T Manisa 12.5.2026 15:30 1.000 TL
682 2024 Toyota COROLLA HYBRID 1.8 Antalya 12.5.2026 15:30 1.000 TL
683 2025 Toyota COROLLA 1.5 İstanbul 12.5.2026 15:30 1.000 TL
684 2015 Volvo XC90 2.0D İstanbul 12.5.2026 15:30 1.000 TL
685 2006 Toyota COROLLA 1.4 D 4D HB İstanbul 12.5.2026 15:30 1.000 TL
686 2025 Tesla MODEL Y İstanbul 12.5.2026 15:30 1.000 TL
687 2025 Honda ADV 350 İstanbul 12.5.2026 15:30 1.000 TL
688 2025 Honda CB 125 F İstanbul 12.5.2026 15:30 1.000 TL
689 2016 Dorse/Römork YASİN ATEŞ YARI RÖMORK Aksaray 12.5.2026 15:30 1.000 TL
690 2014 Hyundai ACCENT BLUE 1.4 Batman 12.5.2026 15:30 1.000 TL
691 2022 Honda CITY 4D 1.5 Ankara 12.5.2026 15:30 1.000 TL
692 2024 Motorsiklet VRS125 İzmir 12.5.2026 15:30 1.000 TL
693 2022 Motorsiklet SFC MINI 50 Adana 12.5.2026 15:30 1.000 TL
694 2015 Hyundai TUCSON 1.6 GDI İstanbul 12.5.2026 15:30 1.000 TL
695 2022 Bmw iX3 EDRIVE20 Muğla 12.5.2026 15:30 1.000 TL
696 2025 Motorsiklet RSX4 125 Samsun 12.5.2026 15:30 1.000 TL
697 2012 Volkswagen POLO 1.2 TDI İstanbul 12.5.2026 15:30 1.000 TL
698 2022 Motorsiklet NEW LIGHT İstanbul 12.5.2026 15:30 1.000 TL
699 2009 Hyundai ACCENT ERA 1.4 TEAM İstanbul 12.5.2026 15:30 1.000 TL
700 2024 Motorsiklet JUPITER 125 Adana 12.5.2026 15:30 1.000 TL
701 2020 Dorse/Römork KALKAN DORSE İstanbul 12.5.2026 15:30 1.000 TL
702 1994 Fiat/Tofaş TEMPRA SX AK Manisa 12.5.2026 15:30 1.000 TL
703 1990 Fiat/Tofaş DOGAN 1.6 Şehir Seç 12.5.2026 15:30 1.000 TL
704 2012 Skoda YETI GREENLINE AMBITION 1.6 TDI Ankara 12.5.2026 15:30 1.000 TL
705 1998 Fiat/Tofaş SAHiN Antalya 12.5.2026 15:30 1.000 TL
706 2025 Toyota COROLLA 1.5 SEDAN İstanbul 12.5.2026 15:30 1.000 TL
707 2023 Volkswagen T-ROC 1.5 TSI Hatay 12.5.2026 15:30 1.000 TL
708 2021 Fiat/Tofaş EGEA SEDAN EASY 1.3 M.JET Antalya 12.5.2026 15:30 1.000 TL
709 2020 Volkswagen GOLF 1.5 TSI ACT 150 DSG Mardin 12.5.2026 15:30 1.000 TL
710 2004 Renault MEGANE SEDAN 1.5 DCI DYNAMIQUE Adana 12.5.2026 15:30 1.000 TL
711 2014 Ford TRANSIT COURIER VAN 1.5 TDCI TREND Ankara 12.5.2026 15:30 1.000 TL
712 2010 Ford T.CONNECT KOMBI K 210S 1.8 TDCİ Kayseri 12.5.2026 15:30 1.000 TL
713 2016 Renault FLUENCE 1.5 DCI İstanbul 12.5.2026 15:30 1.000 TL
714 2022 Motorsiklet JET X 125 İstanbul 12.5.2026 15:30 1.000 TL
715 2016 Honda HRV 1.5İ VTEC Ankara 12.5.2026 15:30 1.000 TL
716 2015 Toyota AURIS 1.33 İzmir 12.5.2026 15:30 1.000 TL
717 2025 Motorsiklet 125 DRFİT L Ankara 12.5.2026 15:30 1.000 TL
718 2021 Nissan QASHQAI 1.3 DIGT 158 DCT SKY PACK PLUS Aydın 12.5.2026 15:30 1.000 TL
719 2011 Traktör TD4.80B Şehir Seç 12.5.2026 15:30 1.000 TL
720 2024 Dacia SANDERO 1,0 İstanbul 12.5.2026 15:30 1.000 TL
721 2004 Ford FIESTA 1.4 TDCİ COMFORT Manisa 12.5.2026 15:30 1.000 TL
722 2026 Fiat/Tofaş DOBLO COMBI EASY 1.5 130 BLUEHDI Ankara 12.5.2026 15:30 1.000 TL
723 2012 Renault SYMBOL 1.5 DCI Şanlıurfa 12.5.2026 15:30 1.000 TL
724 2025 Kgmobılıty MUSSO EV 4X2 İstanbul 12.5.2026 15:30 1.000 TL
725 2011 Opel ASTRA HB 1.3 CDTİ İstanbul 12.5.2026 15:30 1.000 TL
726 1994 Renault R19 EUROPA 1.8 İ Balıkesir 12.5.2026 15:30 1.000 TL
727 2017 Volkswagen POLO 1.2 TSI Konya 12.5.2026 15:30 1.000 TL
728 2014 Volkswagen POLO 1.2 TSI Adana 12.5.2026 15:30 1.000 TL
729 2018 Motorsiklet YAMAHA NMAX 155 İstanbul 12.5.2026 15:30 1.000 TL
730 2005 Peugeot 407 EXECUTIVE 2.0 Bursa 12.5.2026 15:30 1.000 TL
731 2014 Fiat/Tofaş DOBLO COMBI 1.3 M.JET Antalya 12.5.2026 15:30 1.000 TL
732 2010 Fiat/Tofaş DOBLO COMBI 1.3 M.JET 90 Balıkesir 12.5.2026 15:30 1.000 TL
733 2012 Land Rover RANGE ROVER 3.0 TDV6 Muğla 12.5.2026 15:30 1.000 TL
734 2011 Volkswagen POLO 1.6 TDI COMFORTLINE İstanbul 12.5.2026 15:30 1.000 TL
735 2012 Daf FT CF Mersin 12.5.2026 15:30 1.000 TL
736 2011 Ford FIESTA 1.4 TITANIUM Şanlıurfa 12.5.2026 15:30 1.000 TL
737 2026 Motorsiklet 125 DRIFT L Kayseri 12.5.2026 15:30 1.000 TL
738 2007 Volkswagen POLO 1.4 GOAL İstanbul 12.5.2026 15:30 1.000 TL
739 2005 Dacia LOGAN AMBIANCE 1.4 Rize 12.5.2026 15:30 1.000 TL
740 2018 Honda PCX 125 Ankara 12.5.2026 15:30 1.000 TL
741 2008 Opel CORSA 1.3 CDTI ENJOY Sakarya 12.5.2026 15:30 1.000 TL
742 2012 Ford TRANSIT 13+1 MINIBUS Şehir Seç 12.5.2026 15:30 1.000 TL
743 2018 Motorsiklet REVIVAL 50 Balıkesir 12.5.2026 15:30 1.000 TL
744 2015 Bmw 525d XDRIVE Konya 12.5.2026 15:30 1.000 TL
745 2021 Ford TOURNEO COURIER KOMBI 1.5 TDCI Ankara 12.5.2026 15:30 1.000 TL
746 2004 Citroen BERLINGO 1.9D Karaman 12.5.2026 15:30 1.000 TL
747 1991 Nissan SUNNY EX 1,6 Konya 12.5.2026 15:30 1.000 TL
748 2025 Motorsiklet VS4 ELEKTRIKLI Şehir Seç 12.5.2026 15:30 1.000 TL
749 2016 Honda CIVIC SEDAN 1.6 Mersin 12.5.2026 15:30 1.000 TL
750 1999 Fiat/Tofaş PALIO 1.6 Şehir Seç 12.5.2026 15:30 1.000 TL
751 2024 Motorsiklet SRK 125 R Kocaeli 12.5.2026 15:30 1.000 TL
752 2014 Ford TRANSIT 460 ED DELUXE MINIBUS 16+1 Şehir Seç 12.5.2026 15:30 1.000 TL
753 1998 Renault BROADWAY Elazığ 12.5.2026 15:30 1.000 TL
754 2022 Ford F-MAX Mardin 12.5.2026 15:30 1.000 TL
755 2022 Kia SPORTAGE 1.6 150 MHEV DCT Muğla 12.5.2026 15:30 1.000 TL
756 1994 Fiat/Tofaş DOĞAN SLX Ankara 12.5.2026 15:30 1.000 TL
757 2014 Volkswagen POLO 1.4 TDI 90 İstanbul 12.5.2026 15:30 1.000 TL
758 2001 Suzuki MARUTI Denizli 12.5.2026 15:30 1.000 TL
759 2012 Ford FIESTA 1.4 TDCi Nevşehir 12.5.2026 15:30 1.000 TL
760 2013 Volkswagen CADDY KOMBI 1.6 TDI Samsun 12.5.2026 15:30 1.000 TL
761 2018 Skoda SUPERB 1.6 TDI CR Trabzon 12.5.2026 15:30 1.000 TL
762 2023 Peugeot 2008 1.5 BLUEHDI İzmir 12.5.2026 15:30 1.000 TL
763 2016 Toyota COROLLA 1.4 4-4D Ankara 12.5.2026 15:30 1.000 TL
764 2018 Skoda FABIA 1.0 TSI İstanbul 12.5.2026 15:30 1.000 TL
765 2020 Nissan JUKE 1.0 DIG-T PLATINUM İstanbul 12.5.2026 15:30 1.000 TL
766 2017 Honda CIVIC 1.6 İzmir 12.5.2026 15:30 1.000 TL
767 2022 Skoda SCALA 1.0 TSI Niğde 12.5.2026 15:30 1.000 TL
768 2022 Mercedes CEKICI ACTROS Samsun 12.5.2026 15:30 1.000 TL
769 2023 Renault MEGANE 1.3 TCE Elazığ 12.5.2026 15:30 1.000 TL
770 2022 Renault MEGANE 1.3 TCE Kocaeli 12.5.2026 15:30 1.000 TL
771 2023 Jeep AVENGER ELECTRIC 115KW SUMMIT Kocaeli 12.5.2026 15:30 1.000 TL
772 2025 Citroen C4 X 1.2 PURETCH 130 Ankara 12.5.2026 15:30 1.000 TL
773 1999 Volkswagen PASSAT 1.8 Ankara 12.5.2026 15:30 1.000 TL
774 1994 Fiat/Tofaş KARTAL 1.6 Erzurum 12.5.2026 15:30 1.000 TL
775 2023 Fiat/Tofaş DUCATO MINIBUS 16+1 İstanbul 12.5.2026 15:30 1.000 TL
776 2014 Audi A3 SPORTBACK 1.6 TDI Sakarya 12.5.2026 15:30 1.000 TL
777 2012 Mazda 3 HB IMPRESSIVE 1.6 Mersin 12.5.2026 15:30 1.000 TL
778 2017 Opel ASTRA NB 1.6 DIZEL İstanbul 12.5.2026 15:30 1.000 TL
779 2012 Citroen JUMPER 2.2 HDI Şehir Seç 12.5.2026 15:30 1.000 TL
780 2016 Ford RANGER 2.2 TDCI 160 Karaman 12.5.2026 15:30 1.000 TL
781 2021 Ford TRANSIT COURIER VAN 1.5 TDCI Samsun 12.5.2026 15:30 1.000 TL
782 2024 Motorsiklet MOBİLİTTE WİND 5500 Şehir Seç 12.5.2026 15:30 1.000 TL
783 2016 Motorsiklet YP 250 RA Aydın 12.5.2026 15:30 1.000 TL
784 1997 Ford ESCORT 1.6 SEDAN Batman 12.5.2026 15:30 1.000 TL
785 2024 Motorsiklet CHIA 125 PRO Balıkesir 12.5.2026 15:30 1.000 TL
786 1991 Volkswagen GOLF 1.6 (ESKI MODEL) Şanlıurfa 12.5.2026 15:30 1.000 TL
787 1997 Opel VECTRA 2.0 CD Ankara 12.5.2026 15:30 1.000 TL
788 2012 Ford FIESTA TREND 1.4 TDCi Şehir Seç 12.5.2026 15:30 1.000 TL
789 2024 Motorsiklet 125 DRIFT L Bursa 12.5.2026 15:30 1.000 TL
790 2024 Opel COMBO 1.5 D Zonguldak 12.5.2026 15:30 1.000 TL
791 1999 Fiat/Tofaş BRAVA 1.6 SX Bursa 12.5.2026 15:30 1.000 TL
792 2014 Ford FOCUS 1.6 TDCİ Gaziantep 12.5.2026 15:30 1.000 TL
793 2014 Volvo S60 1.6 Diyarbakır 12.5.2026 15:30 1.000 TL
794 2024 Toyota COROLLA HYBRID 1.8 İzmir 12.5.2026 15:30 1.000 TL
795 2025 Skoda OCTAVIA 1.5 MHEV DSG İzmir 12.5.2026 15:30 1.000 TL
796 2025 Mini COUNTRYMAN E FAVOURED İstanbul 12.5.2026 15:30 1.000 TL
797 2015 Renault MASTER PANELVAN 2.3 DCİ Kocaeli 12.5.2026 15:30 1.000 TL
798 2024 Tesla MODEL Y Bursa 12.5.2026 15:30 1.000 TL
799 2021 Seat IBIZA 1.0 Kocaeli 12.5.2026 15:30 1.000 TL
800 2015 Motorsiklet PULSAR NS 200 İzmir 12.5.2026 15:30 1.000 TL
801 1992 Fiat/Tofaş DOĞAN L Şehir Seç 12.5.2026 15:30 1.000 TL
802 1992 Fiat/Tofaş SAHIN 1.6 Kayseri 12.5.2026 15:30 1.000 TL
803 2010 Peugeot 206 1.4 HDI COMFORT İstanbul 12.5.2026 15:30 1.000 TL
804 2016 Renault SYMBOL 1.5 DCI 90 İzmir 12.5.2026 15:30 1.000 TL
805 2009 Peugeot 206 GENERATION 1.4 Erzurum 12.5.2026 15:30 1.000 TL
806 2001 Renault MEGANE 1.4 16V Şehir Seç 12.5.2026 15:30 1.000 TL
807 2015 Fiat/Tofaş FIORINO COMBI 1.3 M.JET 75 Sivas 12.5.2026 15:30 1.000 TL
808 2021 Renault CLIO 1.0 TCE X-TRONIC İstanbul 12.5.2026 15:30 1.000 TL
809 2012 Fiat/Tofaş LINEA 1.3 MULTIJET 90 Osmaniye 12.5.2026 15:30 1.000 TL
810 2016 Volkswagen POLO 1.4 TDI İstanbul 12.5.2026 15:30 1.000 TL
811 1998 Renault KANGOO EXPRESS 1.9D Konya 12.5.2026 15:30 1.000 TL
812 1999 Land Rover FREELANDER 1.8 Ankara 12.5.2026 15:30 1.000 TL
813 2004 Honda CIVIC 1.6 VTEC Diyarbakır 12.5.2026 15:30 1.000 TL
814 2012 Ford FIESTA TREND 5K 1.4 TDCI Şehir Seç 12.5.2026 15:30 1.000 TL
815 1994 Opel VECTRA 2.0 GLS Uşak 12.5.2026 15:30 1.000 TL
816 1998 Renault R9 BROADWAY 1.4 Şehir Seç 12.5.2026 15:30 1.000 TL
817 2006 Fiat/Tofaş PUNTO 1.3 MULTIJET DYNAMİC İstanbul 12.5.2026 15:30 1.000 TL
818 2025 Chery OMODA 5 PRO Mersin 12.5.2026 15:30 1.000 TL
819 2020 Renault CLIO 1,0 Şanlıurfa 12.5.2026 15:30 1.000 TL
820 2013 Motorsiklet GTS 250 İstanbul 12.5.2026 15:30 1.000 TL
821 2016 Motorsiklet R25 ABS Muğla 12.5.2026 15:30 1.000 TL
822 2023 Motorsiklet DOMINAR D 250 Kocaeli 12.5.2026 15:30 1.000 TL
823 2007 Volkswagen CADDY KOMBI 1.9 TDI Kocaeli 12.5.2026 15:30 1.000 TL
824 2017 Hyundai i20 1.4 MPI Osmaniye 12.5.2026 15:30 1.000 TL
825 2020 Renault CLIO 1.3 TCE EDC 130 İstanbul 12.5.2026 15:30 1.000 TL
826 1992 Renault R9 GTE BROADWAY Kütahya 12.5.2026 15:30 1.000 TL
827 2025 Bmw 120 1.5 170 SPORT LINE Ankara 12.5.2026 15:30 1.000 TL
828 2010 Skoda OCTAVİA 1.6 Ankara 12.5.2026 15:30 1.000 TL
829 2018 Peugeot BELVİLLE Aydın 12.5.2026 15:30 1.000 TL
830 2024 Honda ACTİVA 125 Zonguldak 12.5.2026 15:30 1.000 TL
831 2006 Renault MEGANE Kayseri 12.5.2026 15:30 1.000 TL
832 2004 Renault MEGANE 1.6 AUT. Kırıkkale 12.5.2026 15:30 1.000 TL
833 2001 Ford FOCUS 1.6i GHIA Manisa 12.5.2026 15:30 1.000 TL
834 2024 Ford TRANSİT KAMYONET Batman 12.5.2026 15:30 1.000 TL
835 2020 Dacia DUSTER 1.6 İzmir 12.5.2026 15:30 1.000 TL
836 2016 Ford FOCUS 1.5 TDCI 120 Şehir Seç 12.5.2026 15:30 1.000 TL
837 2023 Motorsiklet MAX-T 150 İstanbul 12.5.2026 15:30 1.000 TL
838 2022 Honda DIO 110 Antalya 12.5.2026 15:30 1.000 TL
839 2012 Renault FLUENCE 1.5 DCI Şanlıurfa 12.5.2026 15:30 1.000 TL
840 2021 Honda CIVIC 1.6 Antalya 12.5.2026 15:30 1.000 TL
841 2023 Motorsiklet VİNTAGE 50 Şanlıurfa 12.5.2026 15:30 1.000 TL
842 2011 Audi A5 SPORTBACK 2.0 TDI Elazığ 12.5.2026 15:30 1.000 TL
843 2023 Motorsiklet RS 125 İstanbul 12.5.2026 15:30 1.000 TL
844 1998 Fiat/Tofaş KARTAL S Aksaray 12.5.2026 15:30 1.000 TL
845 1997 Fiat/Tofaş SAHIN S 1.6 Bursa 12.5.2026 15:30 1.000 TL
846 2021 Dacia DOKKER 1.6 Muğla 12.5.2026 15:30 1.000 TL
847 2024 Motorsiklet 250 SR Karabük 12.5.2026 15:30 1.000 TL
848 2022 Motorsiklet 250 NK İstanbul 12.5.2026 15:30 1.000 TL
849 1993 Renault L 422 BROADWAY Ankara 12.5.2026 15:30 1.000 TL
850 2024 Motorsiklet Regal Raptor PILDER 250 İstanbul 12.5.2026 15:30 TL
851 2006 Volkswagen PASSAT 2.0 TDI Samsun 12.5.2026 15:30 1.000 TL
852 2000 Daf CEKICI FT 95 XF 480 Osmaniye 12.5.2026 15:30 1.000 TL
853 2004 Renault LAGUNA 1.6 Bursa 12.5.2026 15:30 1.000 TL
854 1992 Fiat/Tofaş DOĞAN Şehir Seç 12.5.2026 15:30 1.000 TL
855 1992 Fiat/Tofaş ŞAHİN 1.6 Eskişehir 12.5.2026 15:30 1.000 TL
856 2025 Renault CLIO 1.0 TCE İstanbul 12.5.2026 15:30 1.000 TL
857 2010 Skoda ROOMSTER 1.2 Şehir Seç 12.5.2026 15:30 1.000 TL
858 2012 Nissan JUKE 1.5 DCI TEKNA İstanbul 12.5.2026 15:30 1.000 TL
859 2025 Motorsiklet RAIDER 125 Gaziantep 12.5.2026 15:30 1.000 TL
860 2015 Motorsiklet XCITING 250 Antalya 12.5.2026 15:30 1.000 TL
861 2016 Motorsiklet 150 NK Şehir Seç 12.5.2026 15:30 1.000 TL
862 1989 Fiat/Tofaş DOĞAN 1.6 Şehir Seç 12.5.2026 15:30 1.000 TL
863 2020 Motorsiklet ROCCA Şanlıurfa 12.5.2026 15:30 1.000 TL
864 2021 Honda DIO Muğla 12.5.2026 15:30 1.000 TL
865 2010 Nissan QASHQAI 1.6 VISIA Muğla 12.5.2026 15:30 1.000 TL
866 2023 Motorsiklet TRIUMPH TRIDENT 660 Şehir Seç 12.5.2026 15:30 1.000 TL
867 2017 Renault SYMBOL 1.5 DCI 90 Şehir Seç 12.5.2026 15:30 1.000 TL
868 2016 Fiat/Tofaş EGEA HB 1.3 M.JET 95 Siirt 12.5.2026 15:30 1.000 TL
869 2018 Audi A5 COUPE 1.4 TFSI 150 S TRONIC Ankara 12.5.2026 15:30 1.000 TL
870 2018 Fiat/Tofaş EGEA 1.3 M.JET 95 İstanbul 12.5.2026 15:30 1.000 TL
871 2024 Volvo S60 B5 2.0 250 İzmir 12.5.2026 15:30 1.000 TL
872 2010 Volkswagen JETTA 1.6 TDI Şanlıurfa 12.5.2026 15:30 1.000 TL
873 1994 Fiat/Tofaş TEMPRA S Konya 12.5.2026 15:30 1.000 TL
874 2022 Fiat/Tofaş EGEA 1.4 Şanlıurfa 12.5.2026 15:30 1.000 TL
875 2017 Fiat/Tofaş DOBLO COMBI 1.6 M.JET 105 Antalya 12.5.2026 15:30 1.000 TL
876 2025 Motorsiklet Z 500 Şehir Seç 12.5.2026 15:30 1.000 TL
877 2023 Motorsiklet MEDLEY 150 İzmir 12.5.2026 15:30 1.000 TL
878 2024 Motorsiklet JUPITER 125 Gaziantep 12.5.2026 15:30 1.000 TL
879 2019 Renault CLIO HB 0.9 TCE 90 Aksaray 12.5.2026 15:30 1.000 TL
880 2014 Audi A3 SEDAN 1.6 TDI 105 S TRONIC İzmir 12.5.2026 15:30 1.000 TL
881 1998 Bmw 520IA Denizli 12.5.2026 15:30 1.000 TL
882 2012 Scania CEKICI G420 CA 4x2 HSA Samsun 12.5.2026 15:30 1.000 TL
883 2017 Opel INSIGNIA NB 1.6D İzmir 12.5.2026 15:30 1.000 TL
884 2009 Fiat/Tofaş DOBLO COMBI 1.3 MULTIJET PREMIO Şehir Seç 12.5.2026 15:30 1.000 TL
885 2003 Fiat/Tofaş SAHIN 1.6 İ.E. Şehir Seç 12.5.2026 15:30 1.000 TL
886 2014 Scania CEKICI R400 LA 4x2 HLA Konya 12.5.2026 15:30 1.000 TL
887 2014 Hyundai ix35 1.6 GDI Antalya 12.5.2026 16:30 1.000 TL
888 2000 Honda CR V 2.0 iES Ankara 12.5.2026 16:30 1.000 TL
889 2016 Dorse/Römork FRİGOFRİK YARI RÖMORK Hatay 12.5.2026 16:30 1.000 TL
890 2013 Renault SYMBOL 1.5 DCİ Şanlıurfa 12.5.2026 16:30 1.000 TL
891 2004 Fiat/Tofaş DOBLO COMBİ 1.9 JTD VİP Kastamonu 12.5.2026 16:30 1.000 TL
892 1997 Honda CR-V 2.0 İstanbul 12.5.2026 16:30 100.000 TL
893 2009 Honda CR-V 2.0i VTEC EXECUTIVE İstanbul 12.5.2026 16:30 510.000 TL
894 2011 Citroen BERLINGO 1,6 HDI Bursa 12.5.2026 16:30 20.000 TL
895 2020 Skoda SCALA 1,6 TDİ İstanbul 12.5.2026 16:30 1.000 TL
896 2005 Ford FUSION 1.6 Adana 12.5.2026 16:30 1.000 TL
897 2018 Honda SCR 110 5WH Antalya 12.5.2026 16:30 1.000 TL
898 2016 Fiat/Tofaş DOBLO CARGO 1.3 Kayseri 12.5.2026 16:30 1.000 TL
899 2011 Seat IBIZA 1.2 TSI STYLE Kayseri 12.5.2026 16:30 30.500 TL
900 2025 Fiat/Tofaş EGEA 1,6 MULTİJET Eskişehir 12.5.2026 16:30 15.000 TL
901 2025 Motorsiklet WİNG 50İ Aydın 12.5.2026 16:30 1.000 TL
902 2019 Honda CIVIC 1.6İ VTEC Mersin 12.5.2026 16:30 500 TL
903 2007 Seat CORDOBA 1,4 TDİ Ankara 12.5.2026 16:30 1.000 TL
904 2024 Chery TIGGO 8 PRO Kırıkkale 12.5.2026 16:30 1.000 TL
905 2007 Volvo FH 12 420 4x2 Ankara 12.5.2026 16:30 333.500 TL
906 2010 Chevrolet CRUZE 1.6 16V LS Ankara 12.5.2026 16:30 1.000 TL
907 2011 Motorsiklet TRIUMP TIGER 1050 CC İstanbul 12.5.2026 16:30 1.000 TL
908 2025 Motorsiklet FIAT TOPOLINO İstanbul 12.5.2026 16:30 120.000 TL
909 2017 Renault MEGANE SEDAN TOUCH 1.5 DCI EDC 110 İstanbul 12.5.2026 16:30 465.000 TL
910 2023 Ford TRANSIT COURIER 1.5 TDCI 75 E6.2 TREND İstanbul 12.5.2026 16:30 1.000 TL
911 2021 Honda CIVIC 4D ELEGANCE ECO 1.6 125 OV Ankara 12.5.2026 16:30 755.000 TL
912 2017 Fiat/Tofaş EGEA URBAN 1.4 FIRE 95 E6 İstanbul 12.5.2026 16:30 1.000 TL
913 2023 Motorsiklet APRILIA TUONO V4 FACTORY 1100 İstanbul 12.5.2026 16:30 30.000 TL
914 2024 Opel VIVARO CARGO 2.0 145 DIZEL MT6 ELEGANCE XL İstanbul 12.5.2026 16:30 456.000 TL
915 2023 Citroen E-C4 X SHINE BOLD 100 KW Ankara 12.5.2026 16:30 101.000 TL
916 2025 Renault AUSTRAL TECHNO MILD HYBRID 160 AT İstanbul 12.5.2026 16:30 500 TL
917 2012 Kia SPORTAGE 1.6 CONCEPT PLUS İstanbul 12.5.2026 16:30 500 TL
918 2015 Karsan JEST 15+1 B HAT ARACI MINIBUS Erzurum 12.5.2026 16:30 500 TL
919 2018 Ford FOCUS III MCA TREND X 1.6 125 4K Aksaray 12.5.2026 16:30 500 TL
920 1995 Fiat/Tofaş DOGAN SLX Burdur 12.5.2026 16:30 500 TL
921 2019 Toyota COROLLA 1.6 FLAME X-PACK MULTIDRIVE S İstanbul 12.5.2026 16:30 500 TL
922 2025 Opel FRONTERA 1.2 MHEV EDİTİON AT8 İstanbul 12.5.2026 16:30 500 TL
923 2023 Motorsiklet APEC PS5 125 İstanbul 12.5.2026 16:30 500 TL
924 2023 Motorsiklet KUBA VN50 PRO Muğla 12.5.2026 16:30 500 TL
925 2011 Hyundai ACCENT ERA 1.4 TEAM İstanbul 12.5.2026 16:30 500 TL
926 2025 Isuzu D-MAX CIFT KABIN KAMYONET 1.9 V-LIFE İstanbul 12.5.2026 16:30 500 TL
927 2013 Motorsiklet SUZUKI BURGMAN 200 İstanbul 12.5.2026 16:30 500 TL
928 2023 Iveco DAILY KAMYONET 35 C 16 4100 İstanbul 12.5.2026 16:30 500 TL
929 2023 Chery TIGGO 7 PRO EXCELLENT İstanbul 12.5.2026 16:30 500 TL
930 2024 Kia EV3 204 AT ELEKTRIK PRESTIGE LONG RANGE İstanbul 12.5.2026 16:30 500 TL
931 2013 Motorsiklet ARORA AR 150 Malatya 12.5.2026 16:30 500 TL
932 2022 Motorsiklet RKS SNIPER Edirne 12.5.2026 16:30 500 TL
933 2017 Motorsiklet DUCATI SUPER SPORT S İstanbul 12.5.2026 16:30 500 TL
934 2001 Hyundai ACCENT 1.3 LX (Y) Edirne 12.5.2026 16:30 500 TL
935 2024 Motorsiklet KANUNI MATI 125 Kütahya 12.5.2026 16:30 500 TL
936 2007 Renault MEGANE II HB AUTHENTIQUE 1.5 DCI İstanbul 12.5.2026 16:30 1.000 TL
937 2008 Peugeot PARTNER VAN 190 C 1.9D Erzincan 12.5.2026 16:30 1.000 TL
938 2025 Motorsiklet RS6 125 Samsun 12.5.2026 16:30 1.000 TL
939 2000 Fiat/Tofaş UNO S Ankara 12.5.2026 16:30 3.800 TL
940 2007 Honda CIVIC SEDAN 1.6i VTEC İstanbul 12.5.2026 16:30 10.000 TL
941 2023 Motorsiklet 250 DUKE İstanbul 12.5.2026 16:30 1.000 TL
942 2013 Renault MASTER PANELVAN İstanbul 12.5.2026 16:30 1.000 TL
943 2024 Motorsiklet RZ 125 İzmir 12.5.2026 16:30 1.000 TL
944 2022 Motorsiklet VS2 Aydın 12.5.2026 16:30 1.000 TL
945 2020 Honda ACTIVA S (NSC125) İstanbul 12.5.2026 16:30 1.000 TL
946 2023 Motorsiklet JETX 125 İstanbul 12.5.2026 16:30 1.000 TL
947 2013 Mercedes AXOR 1840 LS 4X2 Mardin 13.5.2026 15:15 1.000 TL
948 2012 Dorse/Römork TENTELİ YARI ROMORK Konya 13.5.2026 15:15 1.000 TL
949 2017 Volkswagen PASSAT 1.6 TDI BMT Samsun 13.5.2026 15:15 902.000 TL
950 2003 Hyundai SONATA 2.0 GLS Sakarya 13.5.2026 15:15 139.900 TL
951 2017 Renault TRAFIC MULTIX 1,6 DCİ GRAND CONFORT Ankara 13.5.2026 15:15 325.000 TL
952 2020 Ford TOURNEO COURIER 1,5 TDCİ Antalya 13.5.2026 15:15 491.000 TL
953 2011 Volvo FH 42 TB 460 Mardin 13.5.2026 15:15 554.000 TL
954 2021 Fiat/Tofaş DOBLO CARGO MAXI 1.6 M.JET İstanbul 13.5.2026 15:15 220.000 TL
955 2020 Opel CROSSLAND 1.2 İstanbul 13.5.2026 15:15 837.000 TL
956 2024 Chery OMODA 5 LUXURY İstanbul 13.5.2026 15:15 1.100.000 TL
957 2005 Volkswagen TRANSPORTER 2,5 TDİ Sivas 13.5.2026 15:15 1.000 TL
958 2013 Volkswagen CADDY KOMBI 1.6 TDI İzmir 13.5.2026 15:15 1.000 TL
959 2012 Mercedes SPRINTER 315 CDI 16+1 Mersin 13.5.2026 15:15 1.000 TL
960 2021 Fiat/Tofaş EGEA 1,4 FİRE Bolu 13.5.2026 15:15 1.000 TL
961 2024 Kia NIRO EV Ankara 13.5.2026 15:15 100.200 TL
962 2013 Volkswagen JETTA 1.4 TSI Çanakkale 13.5.2026 15:15 5.000 TL
963 2009 Kia CERATO 1.6 EX DSL NB ADVANCE Kocaeli 13.5.2026 15:30 1.000 TL
964 2021 Kia STONIC Yalova 13.5.2026 15:30 1.000 TL
965 1993 Fiat/Tofaş SAHIN 1.6 SEDAN Kocaeli 13.5.2026 15:30 1.000 TL
966 2004 Renault MEGANE II HB DYNAMIQUE 1.6 16V Afyonkarahisar 13.5.2026 15:30 1.000 TL
967 2024 Motorsiklet SYMPHONY ST 200i İzmir 13.5.2026 15:30 1.000 TL
968 2012 Citroen BERLINGO COMBI 1.6 HDI (92) Şehir Seç 13.5.2026 15:30 1.000 TL
969 2017 Bmw X1 SDRIVE18i 1.5 Şehir Seç 13.5.2026 15:30 1.000 TL
970 2011 Ford FOCUS COLLECTION 1.6 TDCi Şehir Seç 13.5.2026 15:30 1.000 TL
971 2023 Motorsiklet ROSEWOOD 50 Tekirdağ 13.5.2026 15:30 1.000 TL
972 2023 Motorsiklet PULSAR NS 200 İstanbul 13.5.2026 15:30 1.000 TL
973 1991 Mazda 323 HB Konya 13.5.2026 15:30 1.000 TL
974 2000 Renault KANGOO RTE Şehir Seç 13.5.2026 15:30 1.000 TL
975 1979 Renault 12 TSW Şehir Seç 13.5.2026 15:30 1.000 TL
976 1990 Mercedes 200E Bursa 13.5.2026 15:30 1.000 TL
977 2012 Fiat/Tofaş LINEA 1.3 MULTIJET (90) Nevşehir 13.5.2026 15:30 1.000 TL
978 2025 Motorsiklet MOJITO 50 Balıkesir 13.5.2026 15:30 1.000 TL
979 1995 Renault R19 EUROPA Konya 13.5.2026 15:30 1.000 TL
980 2024 Opel COMBO 1.5 DIZEL İstanbul 13.5.2026 15:30 1.000 TL
981 2016 Skoda OCTAVIA 1.6 TDI CR 110 Kayseri 13.5.2026 15:30 1.000 TL
982 2014 Fiat/Tofaş LINEA SEDAN 1.4 FIRE Kocaeli 13.5.2026 15:30 1.000 TL
983 2008 Toyota COROLLA SEDAN 1.4 4 4D COMFORT M/M Kocaeli 13.5.2026 15:30 1.000 TL
984 2013 Renault SYMBOL 0.9 90 TURBO Bursa 13.5.2026 15:30 1.000 TL
985 1996 Opel VECTRA 2.0 GLS Afyonkarahisar 13.5.2026 15:30 1.000 TL
986 1987 Fiat/Tofaş DOGAN 1.6 Antalya 13.5.2026 15:30 1.000 TL
987 2024 Honda PCX 125 Şehir Seç 13.5.2026 15:30 1.000 TL
988 2024 Motorsiklet FRECCIA 150 Şehir Seç 13.5.2026 15:30 1.000 TL
989 2009 Bmw 520D TOURİNG Kayseri 13.5.2026 15:30 1.000 TL
990 2003 Renault KANGOO EXPRESS CONFORT 1.9 D Zonguldak 13.5.2026 15:30 1.000 TL
991 2018 Audi A4 1.4 TFSI Ankara 13.5.2026 15:30 1.000 TL
992 2025 Sfm LAHOS 50 Isparta 13.5.2026 15:30 1.000 TL
993 2016 Motorsiklet KMTCELİK XGJ100-7 Mersin 13.5.2026 15:30 1.000 TL
994 2012 Honda PCX 125 Hatay 13.5.2026 15:30 1.000 TL
995 2023 Motorsiklet PULSAR N 250 Osmaniye 13.5.2026 15:30 1.000 TL
996 2025 Motorsiklet MT 25 Isparta 13.5.2026 15:30 1.000 TL
997 2018 Motorsiklet NMAX 125 İstanbul 13.5.2026 15:30 1.000 TL
998 2024 Motorsiklet GUPPI 110 Şehir Seç 13.5.2026 15:30 1.000 TL
999 2023 Motorsiklet MULTISTRADA V2 İstanbul 13.5.2026 15:30 1.000 TL
1000 2023 Motorsiklet MT 125 Konya 13.5.2026 15:30 1.000 TL
1001 2024 Motorsiklet SRK 125 R Muğla 13.5.2026 15:30 1.000 TL
1002 2016 Motorsiklet PULSAR 200 NS Şehir Seç 13.5.2026 15:30 1.000 TL
1003 2007 Volkswagen GOLF 1.6 FSI (115) Şehir Seç 13.5.2026 15:30 1.000 TL
1004 2011 Volkswagen CRAFTER VOLT 2.5 TDI Hatay 13.5.2026 15:30 1.000 TL
1005 2017 Renault CLIO HB 1.2 Şehir Seç 13.5.2026 15:30 1.000 TL
1006 2023 Fiat/Tofaş EGEA 1,6 MULTİJET Şehir Seç 13.5.2026 15:30 1.000 TL
1007 2024 Motorsiklet QUANTUM 50 Osmaniye 13.5.2026 15:30 1.000 TL
1008 1999 Renault KANGOO 1.4 RL Erzurum 13.5.2026 15:30 1.000 TL
1009 2018 Motorsiklet ZORRO ZR 100-8 Hatay 13.5.2026 15:30 1.000 TL
1010 2003 Ford FOCUS HB 1.6i Uşak 13.5.2026 15:30 1.000 TL
1011 2025 Dacia SANDERO 1.0 TCE İzmir 13.5.2026 15:30 1.000 TL
1012 2012 Volkswagen PASSAT 2.0 TDI BMT 140 COMFORT Afyonkarahisar 13.5.2026 15:30 1.000 TL
1013 2012 Opel ASTRA HB 1.6i Diyarbakır 13.5.2026 15:30 1.000 TL
1014 2014 Motorsiklet TRIUMPH TIGER 800 Şehir Seç 13.5.2026 15:30 1.000 TL
1015 2018 Volkswagen PASSAT 1.4 TSI Bingöl 13.5.2026 15:30 1.000 TL
1016 2024 Opel MOKKA 1.2 Şehir Seç 13.5.2026 15:30 1.000 TL
1017 1998 Honda CIVIC 1.4i Kayseri 13.5.2026 15:30 1.000 TL
1018 2001 Volkswagen TRANSPORTER 2.5 TDI Isparta 13.5.2026 15:30 1.000 TL
1019 2000 Opel ASTRA 1.6 CD Ankara 13.5.2026 15:30 1.000 TL
1020 1999 Proton PERSONA 1.5 Sakarya 13.5.2026 15:30 1.000 TL
1021 2014 Ford TRANSİT 350 L VAN Balıkesir 13.5.2026 15:30 1.000 TL
1022 2017 Renault CLİO 1.5 DCİ 75 İzmir 13.5.2026 15:30 1.000 TL
1023 2009 Honda CİTY 1.4 ELİTE Balıkesir 13.5.2026 15:30 1.000 TL
1024 1998 Renault R19 EUROPA 1.6 RNE Zonguldak 13.5.2026 15:30 1.000 TL
1025 2000 Fiat/Tofaş PALİO 1.4 Bartın 13.5.2026 15:30 1.000 TL
1026 2011 Citroen C5 1.6 Ankara 13.5.2026 15:30 1.000 TL
1027 2024 Skoda SUPERB 1.5 TSI MHEV Balıkesir 13.5.2026 15:30 1.000 TL
1028 2023 Peugeot 3008 1.5 BLUEHDI Ankara 13.5.2026 15:30 1.000 TL
1029 2018 Audi A3 SEDAN 1.6 TDI Kocaeli 13.5.2026 15:30 1.000 TL
1030 2019 Fiat/Tofaş EGEA SEDAN 1.6 M.JET İzmir 13.5.2026 15:30 1.000 TL
1031 2017 Renault CLIO 1.5 DCI Diyarbakır 13.5.2026 15:30 1.000 TL
1032 2021 Ford TOURNEO COURIER KOMBI 1.5 TDCI Kars 13.5.2026 15:30 1.000 TL
1033 2001 Fiat/Tofaş KARTAL 1.6 İE İstanbul 13.5.2026 15:30 1.000 TL
1034 2020 Renault CLIO 1.0 TCE Ankara 13.5.2026 15:30 1.000 TL
1035 2022 Honda NC 750 XD Balıkesir 13.5.2026 15:30 1.000 TL
1036 1992 Fiat/Tofaş DOĞAN SL 1.6 Antalya 13.5.2026 15:30 1.000 TL
1037 1978 Renault 12 SW Konya 13.5.2026 15:30 1.000 TL
1038 2008 Volkswagen T.PORTER Kocaeli 13.5.2026 15:30 1.000 TL
1039 2012 Chevrolet AVEO SEDAN 1.3 LT Tekirdağ 13.5.2026 15:30 1.000 TL
1040 1994 Renault 9 GTE BROADWAY Antalya 13.5.2026 15:30 1.000 TL
1041 1998 Renault MEGANE RXT 2.0 Isparta 13.5.2026 15:30 1.000 TL
1042 2007 Suzuki GSX-R 1000 Kayseri 13.5.2026 15:30 1.000 TL
1043 2015 Fiat/Tofaş EGEA 1.6 M.JET Eskişehir 13.5.2026 15:30 1.000 TL
1044 2006 Volkswagen T.PORTER CITYVAN 1.9 TDI Şehir Seç 13.5.2026 15:30 1.000 TL
1045 1998 Mitsubishi L300 PANEL VAN Şehir Seç 13.5.2026 15:30 1.000 TL
1046 2023 Fiat/Tofaş EGEA SEDAN 1.4 FIRE Kahramanmaraş 13.5.2026 15:30 1.000 TL
1047 2006 Peugeot 407 EXECUTIVE 1.6 HDI Eskişehir 13.5.2026 15:30 1.000 TL
1048 2025 Honda NSS250A FORZA 250 Aydın 13.5.2026 15:30 1.000 TL
1049 2020 Toyota COROLLA 1.6 MULTIDRIVE S Kahramanmaraş 13.5.2026 15:30 1.000 TL
1050 2012 Fiat/Tofaş DOBLO 1.3 MULTIJET Şehir Seç 13.5.2026 15:30 1.000 TL
1051 2023 Motorsiklet FURY 110i Aydın 13.5.2026 15:30 1.000 TL
1052 2021 Citroen C-ELYSEE 1.5 BLUEHDI 100 Aydın 13.5.2026 15:30 1.000 TL
1053 2022 Motorsiklet NEW LIGHT (GST125T-16) Şehir Seç 13.5.2026 15:30 1.000 TL
1054 2001 Renault CLIO 1.4i Şehir Seç 13.5.2026 15:30 1.000 TL
1055 2008 Hyundai i30 1.6 CVVT STYLE OV Yozgat 13.5.2026 15:30 1.000 TL
1056 2011 Bmw 530 D İstanbul 13.5.2026 15:30 1.000 TL
1057 2016 Fiat/Tofaş EGEA SEDAN 1.6 M.JET 120 Karabük 13.5.2026 15:30 1.000 TL
1058 2008 Fiat/Tofaş PUNTO 1.4 Bingöl 13.5.2026 15:30 1.000 TL
1059 2014 Honda CİVİC SEDAN 1.6 125 Ankara 13.5.2026 15:30 1.000 TL
1060 2018 Fiat/Tofaş EGEA SEDAN 1.3 M.JET 95 Ankara 13.5.2026 15:30 1.000 TL
1061 2015 Renault TRAFIC PANELVAN 1.6 DCI 115 Aydın 13.5.2026 15:30 1.000 TL
1062 2013 Volkswagen PASSAT BMT 105 DSG Kocaeli 13.5.2026 15:30 1.000 TL
1063 2014 Citroen BERLİNGO 1.6 HDI 90 Çorum 13.5.2026 15:30 1.000 TL
1064 2024 Motorsiklet RAIDER Kocaeli 13.5.2026 15:30 1.000 TL
1065 2025 Motorsiklet 450 NK İstanbul 13.5.2026 15:30 1.000 TL
1066 2012 Volvo CEKICI FH 42 TB 460 Mersin 13.5.2026 15:30 1.000 TL
1067 2015 Fiat/Tofaş DOBLO COMBI 1.3 M.JET 90 Bartın 13.5.2026 15:30 1.000 TL
1068 2006 Volkswagen CADDY KOMBI 1.9 TDI İstanbul 13.5.2026 15:30 1.000 TL
1069 2024 Fiat/Tofaş DOBLO COMBI 1.5 100 BLUEHDI Ankara 13.5.2026 15:30 1.000 TL
1070 2023 Togg T10X V2 RWD UZUN MENZIL 160KW Ankara 13.5.2026 15:30 1.000 TL
1071 2008 Ford T. CONNECT KOMBI K210S 1.8 TDCi (75) Şanlıurfa 13.5.2026 15:30 1.000 TL
1072 2013 Mercedes E 250 CDI 4MATIC Hatay 13.5.2026 15:30 1.000 TL
1073 2022 Toyota COROLLA 1.5 MULTIDRIVE S Sakarya 13.5.2026 15:30 1.000 TL
1074 2012 Volkswagen GOLF VI 1.6 (102) TRENDLINE Adana 13.5.2026 15:30 1.000 TL
1075 2007 Ford FIESTA 1.6i COMFORT OV Ankara 13.5.2026 15:30 1.000 TL
1076 2016 Fiat/Tofaş EGEA 1.3 M.JET 95 Samsun 13.5.2026 15:30 1.000 TL
1077 2017 Ford TRANSIT 350 ED CIFT KABIN K.NET KASASIZ 155 Ankara 13.5.2026 16:30 1.000 TL
1078 2004 Toyota AVENSIS 2.0 ELEGANT İstanbul 13.5.2026 16:30 1.000 TL
1079 2024 Audi A3 SEDAN 35 TFSI 150 ADVANCED STRONIC İstanbul 13.5.2026 16:30 750.000 TL
1080 2004 Opel VECTRA 1.6i COMFORT Ankara 13.5.2026 16:30 1.000 TL
1081 2016 Motorsiklet YAMAHA XSR700 ABS İstanbul 13.5.2026 16:30 1.000 TL
1082 2024 Motorsiklet KTM 250 DUKE İstanbul 13.5.2026 16:30 1.000 TL
1083 2021 Honda HONDA PCX 125 İstanbul 13.5.2026 16:30 1.000 TL
1084 2017 Honda ACTIVA S 125 İstanbul 13.5.2026 16:30 1.000 TL
1085 2011 Motorsiklet YAMAHA X CITY 250 İstanbul 13.5.2026 16:30 1.000 TL
1086 2024 Motorsiklet M250 İstanbul 13.5.2026 16:30 1.000 TL
1087 2019 Honda ACTIVA S 125 İstanbul 13.5.2026 16:30 1.000 TL
1088 2025 Motorsiklet MT 50 İstanbul 14.5.2026 15:30 1.000 TL
1089 2011 Renault SYMBOL AUTHENTIQUE 1.5 DCI 65 Siirt 14.5.2026 15:30 1.000 TL
1090 2020 Skoda FABIA 1.0 TSI 95 DSG Elazığ 14.5.2026 15:30 1.000 TL
1091 2006 Saab 9-3 VECTOR 2.0 T SEDAN Afyonkarahisar 28.7.2026 16:30 265.000 TL
Deniz Uğurlu : 0532 6657413 - Abdullah Adsay : 0506 7521791 - Metin Oktay : 0532 6717940 -  WhatsApp Hattı: 0533 2028867
Banka Hesabımız
Copyright © 2003 , TAŞKIN  UĞURLU  Hasarlı Oto Tüm hakları saklıdır.